CES3509 ZSAM-ZSAM

Flight info

Callsign CES3509
Flight time N/A
Altitude 33000
Route APAKA9Z APAKA M503 TOLAK DCT OLDID R200 CYRUS G581 HCN B591 TINHO Q11 SALMI DCT APITO/K0922F340 A326 AKARA/K0920S1040 A326 DONVO/K0915S1070 DCT TOMUK/K0913F350 B332 WASAN R452 KICHA B356 TD B355 HAB/K0919F360 B150 AMERA/K0907F370 DCT WZ/K0906F360 B811 NINON G229 NIKTO P873 KU/K0900F380 N622 GETRU B227 NAREM B161 SULOK/K0902S1160 Y327 POLHO/K0913S1130 DCT KB/K0902S1190 DCT OVOOT DCT HUTUL/K0867S0720 J2 IM H82 ULGII/K0891S1220 R366 NOPUS/K0893F400 R366 GOMIR M618 GOMAL L135 KOKZA Z160 DOTAL Z370 IZIMA L135 BALVU T230 TADOT L138 VUCAZ P198 SINFA L145 POMIR/K0898F410 L181 AGVUT/K0902S1250 DCT PURPA/N0486F410 DCT LEH DCT DDN J76 DOKNU DCT POK W41 KTM G348 PRO/N0517F290 Y1 BT Y2 YP/K0902S1250 DCT EPKUN DCT EPKUN DCT MAPSU/N0487F410 DCT TZU DCT PT/N0492F260 V11 MKN V17 BM/N0489F410 DCT LSO V4 KG DCT AKSAG B214 LADON/K0909F410 B468 DBN DCT LAOCI DCT MEOVA R471 NAKHA Q14 VDO DCT BALOV/K0900F430 W10 ASSAD/K0904S1250 DCT URDIN W169 ATALA W170 SAVNO W171 LENKO/K0904F410 A1 IKELA/N0489F410 A1 IDOSI P901 BIGEX A1 MAGOG A470 DOTMI/K0907S1250 A470 TEBON TEBON8X
Aircraft A359/H-SDE2E3GHIJ3J4J5LM1ORWXY/LB1D1

Departure

Time 2026-04-27 07:32
Airport Xiamen Gaoqi International Airport (ZSAM)

Arrival

Time N/A
Airport Xiamen Gaoqi International Airport (ZSAM)
Time Latitude Longitude Altitude Speed Heading
2026-04-27 07:14 24.54720 118.13899 45 ft 4 kts 29°
2026-04-27 07:14 24.54697 118.13894 47 ft 4 kts 340°
2026-04-27 07:14 24.54674 118.13908 48 ft 3 kts 321°
2026-04-27 07:15 24.54670 118.13912 47 ft 0 kts 321°
2026-04-27 07:18 24.54674 118.13908 48 ft 5 kts 322°
2026-04-27 07:19 24.54712 118.13875 44 ft 7 kts 322°
2026-04-27 07:19 24.54752 118.13841 50 ft 7 kts 321°
2026-04-27 07:19 24.54792 118.13805 49 ft 8 kts 321°
2026-04-27 07:19 24.54814 118.13767 50 ft 5 kts 274°
2026-04-27 07:20 24.54804 118.13735 48 ft 4 kts 239°
2026-04-27 07:20 24.54785 118.13706 48 ft 8 kts 233°
2026-04-27 07:20 24.54724 118.13619 47 ft 19 kts 232°
2026-04-27 07:20 24.54644 118.13507 48 ft 18 kts 232°
2026-04-27 07:21 24.54567 118.13400 48 ft 17 kts 232°
2026-04-27 07:21 24.54496 118.13297 49 ft 17 kts 233°
2026-04-27 07:21 24.54453 118.13235 54 ft 6 kts 231°
2026-04-27 07:21 24.54432 118.13198 50 ft 5 kts 251°
2026-04-27 07:22 24.54439 118.13171 54 ft 3 kts 303°
2026-04-27 07:22 24.54453 118.13148 52 ft 3 kts 297°
2026-04-27 07:22 24.54442 118.13098 50 ft 13 kts 235°
2026-04-27 07:22 24.54376 118.13003 51 ft 15 kts 232°
2026-04-27 07:23 24.54311 118.12913 52 ft 15 kts 232°
2026-04-27 07:23 24.54249 118.12827 52 ft 14 kts 231°
2026-04-27 07:23 24.54191 118.12744 56 ft 13 kts 231°
2026-04-27 07:23 24.54135 118.12667 53 ft 13 kts 232°
2026-04-27 07:24 24.54081 118.12592 54 ft 12 kts 232°
2026-04-27 07:24 24.54030 118.12521 54 ft 12 kts 232°
2026-04-27 07:24 24.53982 118.12454 39 ft 11 kts 232°
2026-04-27 07:24 24.53936 118.12388 55 ft 11 kts 232°
2026-04-27 07:25 24.53890 118.12325 57 ft 10 kts 232°
2026-04-27 07:25 24.53847 118.12264 56 ft 10 kts 232°
2026-04-27 07:25 24.53805 118.12206 57 ft 10 kts 232°
2026-04-27 07:25 24.53765 118.12149 59 ft 9 kts 232°
2026-04-27 07:26 24.53726 118.12095 57 ft 9 kts 232°
2026-04-27 07:26 24.53688 118.12042 63 ft 9 kts 232°
2026-04-27 07:26 24.53652 118.11991 58 ft 8 kts 232°
2026-04-27 07:26 24.53617 118.11942 58 ft 8 kts 231°
2026-04-27 07:27 24.53583 118.11895 66 ft 8 kts 232°
2026-04-27 07:27 24.53551 118.11850 59 ft 7 kts 232°
2026-04-27 07:27 24.53519 118.11806 59 ft 7 kts 232°
2026-04-27 07:27 24.53490 118.11764 62 ft 7 kts 232°
2026-04-27 07:28 24.53461 118.11724 60 ft 7 kts 232°
2026-04-27 07:28 24.53418 118.11664 60 ft 12 kts 232°
2026-04-27 07:28 24.53400 118.11584 68 ft 11 kts 283°
2026-04-27 07:28 24.53406 118.11559 71 ft 0 kts 284°
2026-04-27 07:29 24.53408 118.11548 72 ft 8 kts 285°
2026-04-27 07:29 24.53441 118.11489 63 ft 9 kts 324°
2026-04-27 07:29 24.53502 118.11497 62 ft 9 kts 37°
2026-04-27 07:30 24.53531 118.11535 60 ft 0 kts 52°
2026-04-27 07:30 24.53532 118.11537 60 ft 1 kts 52°
2026-04-27 07:30 24.53652 118.11705 59 ft 56 kts 52°
2026-04-27 07:31 24.53999 118.12189 55 ft 105 kts 52°
2026-04-27 07:31 24.54546 118.12955 49 ft 147 kts 52°
2026-04-27 07:31 24.55262 118.13927 153 ft 172 kts 51°
2026-04-27 07:31 24.56012 118.14978 490 ft 179 kts 51°
2026-04-27 07:32 24.56820 118.16085 775 ft 192 kts 51°
2026-04-27 07:32 24.57701 118.17250 1095 ft 204 kts 50°
2026-04-27 07:32 24.58644 118.18452 1470 ft 209 kts 49°
2026-04-27 07:32 24.59621 118.19657 1878 ft 213 kts 48°
2026-04-27 07:33 24.60258 118.21114 2246 ft 216 kts 85°
2026-04-27 07:33 24.59981 118.22715 2660 ft 218 kts 121°
2026-04-27 07:33 24.58859 118.23787 3026 ft 218 kts 162°
2026-04-27 07:33 24.57374 118.23776 3417 ft 217 kts 198°
2026-04-27 07:34 24.55954 118.23199 3800 ft 219 kts 202°
2026-04-27 07:34 24.54526 118.22579 4172 ft 225 kts 201°
2026-04-27 07:34 24.53009 118.21963 4358 ft 239 kts 199°
2026-04-27 07:34 24.51477 118.21206 4707 ft 245 kts 214°
2026-04-27 07:35 24.50264 118.19920 5000 ft 254 kts 231°
2026-04-27 07:35 24.49153 118.18345 5272 ft 264 kts 232°
2026-04-27 07:35 24.48031 118.16718 5780 ft 267 kts 232°
2026-04-27 07:35 24.46900 118.15095 6304 ft 269 kts 232°
2026-04-27 07:36 24.45750 118.13460 6761 ft 273 kts 232°
2026-04-27 07:36 24.44582 118.11799 7236 ft 277 kts 232°
2026-04-27 07:36 24.43404 118.10118 7777 ft 279 kts 232°
2026-04-27 07:36 24.42215 118.08428 8306 ft 281 kts 232°
2026-04-27 07:37 24.41011 118.06721 8815 ft 284 kts 232°
2026-04-27 07:37 24.39794 118.05007 9353 ft 286 kts 231°
2026-04-27 07:37 24.38561 118.03286 9875 ft 288 kts 231°
2026-04-27 07:37 24.37255 118.01602 10217 ft 294 kts 223°
2026-04-27 07:38 24.35493 118.00397 10385 ft 306 kts 198°
2026-04-27 07:38 24.33341 118.00186 10553 ft 319 kts 171°
2026-04-27 07:38 24.31262 118.01119 10706 ft 333 kts 144°
2026-04-27 07:38 24.29654 118.02966 10905 ft 346 kts 129°
2026-04-27 07:39 24.27994 118.04921 11103 ft 355 kts 138°
2026-04-27 07:39 24.26146 118.06778 11316 ft 365 kts 140°
2026-04-27 07:39 24.24210 118.08650 11472 ft 376 kts 140°
2026-04-27 07:39 24.22213 118.10552 11623 ft 385 kts 141°
2026-04-27 07:40 24.20166 118.12495 11814 ft 393 kts 141°
2026-04-27 07:40 24.18079 118.14472 12052 ft 398 kts 141°
2026-04-27 07:40 24.15978 118.16462 12369 ft 401 kts 141°
2026-04-27 07:40 24.13859 118.18466 12726 ft 404 kts 141°
2026-04-27 07:41 24.11726 118.20482 13067 ft 406 kts 141°
2026-04-27 07:41 24.09577 118.22512 13417 ft 408 kts 141°
2026-04-27 07:41 24.07421 118.24549 13759 ft 410 kts 141°
2026-04-27 07:41 24.05253 118.26596 14066 ft 413 kts 141°
2026-04-27 07:42 24.03081 118.28652 14417 ft 413 kts 141°
2026-04-27 07:42 24.00905 118.30713 14756 ft 415 kts 141°
2026-04-27 07:42 23.98741 118.32759 15039 ft 417 kts 141°
2026-04-27 07:42 23.96537 118.34842 15328 ft 420 kts 141°
2026-04-27 07:43 23.94318 118.36931 15624 ft 422 kts 142°
2026-04-27 07:43 23.91939 118.38816 15881 ft 422 kts 152°
2026-04-27 07:43 23.89270 118.40136 16158 ft 421 kts 165°
2026-04-27 07:43 23.86415 118.40776 16428 ft 419 kts 177°
2026-04-27 07:44 23.83507 118.40711 16721 ft 418 kts 190°
2026-04-27 07:44 23.80690 118.39953 17008 ft 416 kts 202°
2026-04-27 07:44 23.78107 118.38552 17295 ft 416 kts 214°
2026-04-27 07:44 23.75864 118.36573 17596 ft 415 kts 226°
2026-04-27 07:45 23.74073 118.34121 17919 ft 415 kts 238°
2026-04-27 07:45 23.72795 118.31285 18127 ft 418 kts 250°
2026-04-27 07:45 23.71875 118.28311 18384 ft 419 kts 250°
2026-04-27 07:45 23.70621 118.25439 18636 ft 421 kts 239°
2026-04-27 07:46 23.68918 118.22839 18906 ft 422 kts 233°
2026-04-27 07:46 23.67047 118.20371 19158 ft 423 kts 230°
2026-04-27 07:46 23.65086 118.17963 19413 ft 425 kts 229°
2026-04-27 07:46 23.63089 118.15578 19663 ft 426 kts 229°
2026-04-27 07:47 23.61083 118.13190 19917 ft 428 kts 229°
2026-04-27 07:47 23.59071 118.10780 20174 ft 429 kts 229°
2026-04-27 07:47 23.57067 118.08358 20428 ft 430 kts 230°
2026-04-27 07:47 23.55067 118.05926 20691 ft 431 kts 230°
2026-04-27 07:48 23.53067 118.03486 20988 ft 432 kts 230°
2026-04-27 07:48 23.51084 118.01059 21158 ft 436 kts 230°
2026-04-27 07:48 23.49064 117.98586 21401 ft 438 kts 230°
2026-04-27 07:48 23.47032 117.96100 21683 ft 439 kts 230°
2026-04-27 07:49 23.44996 117.93611 21951 ft 440 kts 231°
2026-04-27 07:49 23.42954 117.91114 22200 ft 442 kts 231°
2026-04-27 07:49 23.40907 117.88615 22462 ft 443 kts 231°
2026-04-27 07:49 23.38850 117.86106 22708 ft 445 kts 231°
2026-04-27 07:50 23.36780 117.83583 22964 ft 447 kts 231°
2026-04-27 07:50 23.34705 117.81055 23205 ft 448 kts 231°
2026-04-27 07:50 23.32619 117.78514 23455 ft 450 kts 231°
2026-04-27 07:50 23.30558 117.76003 23670 ft 451 kts 231°
2026-04-27 07:51 23.28465 117.73455 23867 ft 452 kts 231°
2026-04-27 07:51 23.26361 117.70897 24094 ft 453 kts 231°
2026-04-27 07:51 23.24255 117.68338 24315 ft 454 kts 231°
2026-04-27 07:51 23.22146 117.65776 24518 ft 455 kts 231°
2026-04-27 07:52 23.20031 117.63209 24757 ft 456 kts 230°
2026-04-27 07:52 23.17909 117.60633 25020 ft 457 kts 230°
2026-04-27 07:52 23.15782 117.58054 25273 ft 459 kts 230°
2026-04-27 07:52 23.13515 117.55594 25508 ft 462 kts 224°
2026-04-27 07:53 23.10950 117.53459 25767 ft 466 kts 216°
2026-04-27 07:53 23.08091 117.51759 26029 ft 472 kts 207°
2026-04-27 07:53 23.04974 117.50584 26291 ft 478 kts 197°
2026-04-27 07:53 23.01673 117.50003 26547 ft 485 kts 187°
2026-04-27 07:54 22.98314 117.50040 26785 ft 492 kts 178°
2026-04-27 07:54 22.94922 117.50697 27020 ft 499 kts 168°
2026-04-27 07:54 22.91634 117.51972 27260 ft 506 kts 159°
2026-04-27 07:54 22.88546 117.53847 27470 ft 513 kts 149°
2026-04-27 07:55 22.85747 117.56294 27709 ft 520 kts 139°
2026-04-27 07:55 22.83340 117.59258 27942 ft 526 kts 129°
2026-04-27 07:55 22.82009 117.61465 28069 ft 530 kts 122°
2026-04-27 07:55 22.80448 117.65106 28266 ft 536 kts 111°
2026-04-27 07:56 22.78974 117.70287 28534 ft 538 kts 111°
2026-04-27 07:56 22.77552 117.74034 28739 ft 538 kts 119°
2026-04-27 07:56 22.75636 117.77495 28987 ft 533 kts 129°
2026-04-27 07:56 22.73349 117.80563 29291 ft 530 kts 134°
2026-04-27 07:57 22.71704 117.82585 29492 ft 529 kts 136°
2026-04-27 07:57 22.68396 117.86440 29861 ft 527 kts 137°
2026-04-27 07:57 22.65856 117.89313 30133 ft 527 kts 137°
2026-04-27 07:57 22.63317 117.92167 30317 ft 527 kts 137°
2026-04-27 07:58 22.60774 117.95032 30508 ft 528 kts 137°
2026-04-27 07:58 22.59069 117.96980 30631 ft 529 kts 136°
2026-04-27 07:58 22.56631 117.99963 30841 ft 530 kts 134°
2026-04-27 07:58 22.54259 118.03022 31025 ft 531 kts 133°
2026-04-27 07:59 22.51908 118.06111 31212 ft 531 kts 133°
2026-04-27 07:59 22.47200 118.12275 31613 ft 531 kts 134°
2026-04-27 07:59 22.44864 118.15296 31793 ft 531 kts 134°
2026-04-27 08:00 22.42480 118.18359 31964 ft 531 kts 134°
2026-04-27 08:00 22.40173 118.21495 32116 ft 535 kts 128°
2026-04-27 08:00 22.38094 118.24834 32294 ft 536 kts 127°
2026-04-27 08:00 22.36068 118.28218 32470 ft 537 kts 126°
2026-04-27 08:01 22.34074 118.31622 32630 ft 537 kts 125°
2026-04-27 08:01 22.32088 118.35043 32851 ft 536 kts 125°
2026-04-27 08:01 22.28114 118.41896 32933 ft 541 kts 125°
2026-04-27 08:02 22.24107 118.48825 32930 ft 546 kts 123°
2026-04-27 08:02 22.21317 118.56422 32946 ft 550 kts 103°
2026-04-27 08:03 22.20101 118.64592 32949 ft 551 kts 98°
2026-04-27 08:03 22.19171 118.72815 32944 ft 550 kts 97°
2026-04-27 08:04 22.18255 118.81013 32945 ft 550 kts 98°
2026-04-27 08:04 22.17304 118.89156 32945 ft 550 kts 98°
2026-04-27 08:05 22.16325 118.97333 32943 ft 549 kts 98°
2026-04-27 08:05 22.15342 119.05477 32944 ft 547 kts 98°
2026-04-27 08:06 22.14350 119.13632 32943 ft 547 kts 98°
2026-04-27 08:06 22.13362 119.21771 32943 ft 547 kts 98°
2026-04-27 08:07 22.12370 119.29907 32945 ft 546 kts 98°
2026-04-27 08:07 22.11377 119.38028 32944 ft 545 kts 98°
2026-04-27 08:08 22.10380 119.46140 32945 ft 545 kts 98°
2026-04-27 08:08 22.09378 119.54256 32935 ft 545 kts 98°
2026-04-27 08:09 22.08382 119.62300 32951 ft 544 kts 98°
2026-04-27 08:09 22.07379 119.70395 32948 ft 544 kts 99°
2026-04-27 08:10 22.06368 119.78469 32944 ft 543 kts 99°
2026-04-27 08:10 22.05350 119.86531 32943 ft 542 kts 99°
2026-04-27 08:11 22.04340 119.94528 32942 ft 541 kts 99°
2026-04-27 08:11 22.03316 120.02633 32941 ft 541 kts 99°
2026-04-27 08:12 22.02313 120.10640 32938 ft 541 kts 99°
2026-04-27 08:12 22.01287 120.18667 32942 ft 540 kts 99°
2026-04-27 08:13 22.00256 120.26680 32941 ft 539 kts 99°
2026-04-27 08:13 21.99223 120.34697 32941 ft 539 kts 99°
2026-04-27 08:14 21.98194 120.42662 32943 ft 540 kts 99°
2026-04-27 08:14 21.97153 120.50703 32946 ft 541 kts 99°
2026-04-27 08:15 21.96110 120.58728 32948 ft 541 kts 99°
2026-04-27 08:15 21.95063 120.66751 32953 ft 541 kts 99°
2026-04-27 08:16 21.94279 120.74806 32956 ft 542 kts 90°
2026-04-27 08:16 21.95558 120.82727 32958 ft 542 kts 69°
2026-04-27 08:17 21.97174 120.86385 32960 ft 541 kts 57°
2026-04-27 08:17 21.99383 120.89639 32958 ft 537 kts 46°
2026-04-27 08:17 22.04931 120.94982 32957 ft 534 kts 36°
2026-04-27 08:18 22.10770 120.99954 32961 ft 536 kts 35°
2026-04-27 08:18 22.16642 121.04914 32958 ft 536 kts 36°
2026-04-27 08:19 22.22488 121.09916 32958 ft 536 kts 36°
2026-04-27 08:19 22.28315 121.14942 32958 ft 536 kts 36°
2026-04-27 08:20 22.34146 121.19966 32959 ft 536 kts 36°
2026-04-27 08:20 22.39963 121.24986 32944 ft 535 kts 36°
2026-04-27 08:21 22.45794 121.30014 32950 ft 537 kts 35°
2026-04-27 08:21 22.51662 121.34930 32954 ft 537 kts 35°
2026-04-27 08:22 22.57581 121.39880 32958 ft 537 kts 36°
2026-04-27 08:22 22.63471 121.44838 32954 ft 535 kts 36°
2026-04-27 08:23 22.69766 121.49012 32951 ft 528 kts 19°
2026-04-27 08:23 22.76604 121.51865 32955 ft 525 kts 14°
2026-04-27 08:24 22.83572 121.54074 32960 ft 523 kts 12°
2026-04-27 08:24 22.90600 121.56157 32958 ft 522 kts 12°
2026-04-27 08:25 22.97592 121.58314 32959 ft 522 kts 13°
2026-04-27 08:25 23.04530 121.60532 32967 ft 523 kts 13°
2026-04-27 08:26 23.11518 121.62782 32966 ft 523 kts 12°
2026-04-27 08:26 23.18511 121.65035 32975 ft 524 kts 13°
2026-04-27 08:27 23.25507 121.67291 32974 ft 524 kts 12°
2026-04-27 08:27 23.32467 121.69525 32981 ft 524 kts 12°
2026-04-27 08:28 23.39469 121.71777 32968 ft 524 kts 12°
2026-04-27 08:28 23.46471 121.74044 32972 ft 525 kts 12°
2026-04-27 08:29 23.53474 121.76311 32980 ft 525 kts 12°
2026-04-27 08:29 23.60480 121.78578 32982 ft 524 kts 12°
2026-04-27 08:30 23.67404 121.80813 32974 ft 522 kts 12°
2026-04-27 08:30 23.74375 121.83069 32989 ft 522 kts 12°
2026-04-27 08:31 23.81342 121.85330 32988 ft 522 kts 12°
2026-04-27 08:31 23.88315 121.87597 32983 ft 521 kts 13°
2026-04-27 08:32 23.95267 121.89844 32988 ft 520 kts 13°
2026-04-27 08:32 24.02213 121.92091 32987 ft 520 kts 13°
2026-04-27 08:33 24.09110 121.94350 32997 ft 520 kts 13°
2026-04-27 08:33 24.16050 121.96620 32985 ft 520 kts 13°
2026-04-27 08:34 24.22992 121.98884 32986 ft 520 kts 13°
2026-04-27 08:34 24.29935 122.01152 32986 ft 520 kts 13°
2026-04-27 08:35 24.36966 122.02825 32988 ft 514 kts
2026-04-27 08:35 24.44054 122.03292 32986 ft 514 kts 359°
2026-04-27 08:36 24.51199 122.03558 32983 ft 513 kts 358°
2026-04-27 08:36 24.58345 122.03801 32983 ft 513 kts 358°
2026-04-27 08:37 24.65496 122.04065 32979 ft 513 kts 358°
2026-04-27 08:37 24.72638 122.04339 32980 ft 513 kts 358°
2026-04-27 08:38 24.79781 122.04616 32978 ft 513 kts 358°
2026-04-27 08:38 24.86880 122.04894 32988 ft 513 kts 359°
2026-04-27 08:39 24.94028 122.05172 32977 ft 514 kts 359°
2026-04-27 08:39 25.01180 122.05450 32976 ft 514 kts 359°
2026-04-27 08:40 25.08329 122.05728 32979 ft 514 kts 359°
2026-04-27 08:40 25.15476 122.06013 32985 ft 514 kts 359°
2026-04-27 08:41 25.22641 122.06298 32972 ft 515 kts 358°
2026-04-27 08:41 25.29812 122.06578 32973 ft 516 kts 358°
2026-04-27 08:42 25.36940 122.06859 32974 ft 516 kts 358°
2026-04-27 08:42 25.44114 122.07144 32975 ft 516 kts 359°
2026-04-27 08:43 25.51302 122.07432 32978 ft 516 kts 359°
2026-04-27 08:43 25.58462 122.08065 32972 ft 520 kts
2026-04-27 08:44 25.65263 122.10868 32985 ft 528 kts 29°
2026-04-27 08:44 25.71444 122.15353 32973 ft 533 kts 33°
2026-04-27 08:45 25.77488 122.20122 32972 ft 534 kts 34°
2026-04-27 08:45 25.83535 122.24913 32990 ft 534 kts 33°
2026-04-27 08:46 25.88574 122.28874 32978 ft 534 kts 33°
2026-04-27 08:46 25.94675 122.33643 32980 ft 537 kts 32°
2026-04-27 08:47 26.00793 122.38420 32980 ft 537 kts 33°
2026-04-27 08:47 26.06900 122.43203 32979 ft 536 kts 33°
2026-04-27 08:48 26.12994 122.47985 32983 ft 537 kts 32°
2026-04-27 08:48 26.19067 122.52756 32985 ft 537 kts 32°
2026-04-27 08:49 26.25172 122.57564 32985 ft 537 kts 32°
2026-04-27 08:49 26.31278 122.62382 32988 ft 537 kts 32°
2026-04-27 08:50 26.37380 122.67204 32983 ft 537 kts 32°
2026-04-27 08:50 26.43488 122.72032 32985 ft 537 kts 32°
2026-04-27 08:51 26.49547 122.76830 32990 ft 537 kts 32°
2026-04-27 08:51 26.55647 122.81666 32991 ft 537 kts 32°
2026-04-27 08:52 26.61748 122.86505 32990 ft 538 kts 32°
2026-04-27 08:52 26.67850 122.91335 32992 ft 537 kts 32°
2026-04-27 08:53 26.73951 122.96171 33002 ft 537 kts 32°
2026-04-27 08:53 26.80044 123.01015 32991 ft 537 kts 32°
2026-04-27 08:54 26.86124 123.05871 32996 ft 537 kts 32°
2026-04-27 08:54 26.92178 123.10707 32991 ft 537 kts 32°
2026-04-27 08:55 26.98256 123.15570 32992 ft 537 kts 32°
2026-04-27 08:55 27.04331 123.20440 32991 ft 535 kts 32°
2026-04-27 08:56 27.10395 123.25306 32995 ft 535 kts 32°
2026-04-27 08:56 27.16449 123.30170 32998 ft 534 kts 32°
2026-04-27 08:57 27.25457 123.37422 32999 ft 530 kts 32°
2026-04-27 08:58 27.31411 123.42220 32998 ft 530 kts 32°
2026-04-27 08:58 27.37397 123.47052 33002 ft 529 kts 31°
2026-04-27 08:59 27.43370 123.51881 33001 ft 528 kts 31°
2026-04-27 08:59 27.49335 123.56709 33002 ft 528 kts 31°
2026-04-27 09:00 27.55297 123.61542 33002 ft 528 kts 31°
2026-04-27 09:00 27.61332 123.66231 33004 ft 524 kts 24°
2026-04-27 09:01 27.67885 123.69720 33000 ft 520 kts 18°
2026-04-27 09:01 27.74536 123.72900 33001 ft 519 kts 18°
2026-04-27 09:02 27.81212 123.76035 33002 ft 519 kts 17°
2026-04-27 09:02 27.87882 123.79184 33002 ft 520 kts 18°
2026-04-27 09:03 27.94513 123.82336 33003 ft 520 kts 18°
2026-04-27 09:03 28.01187 123.85520 33007 ft 520 kts 18°
2026-04-27 09:04 28.07854 123.88706 33002 ft 520 kts 18°
2026-04-27 09:04 28.14522 123.91895 33004 ft 520 kts 18°
2026-04-27 09:05 28.21192 123.95088 33024 ft 520 kts 18°
2026-04-27 09:05 28.27855 123.98242 32995 ft 516 kts 15°
2026-04-27 09:06 28.34765 123.99906 33005 ft 501 kts 357°
2026-04-27 09:06 28.41726 124.00122 33000 ft 499 kts 355°
2026-04-27 09:07 28.48616 124.00097 33003 ft 498 kts 354°
2026-04-27 09:07 28.55549 124.00052 33002 ft 498 kts 354°
2026-04-27 09:08 28.62488 124.00033 33000 ft 498 kts 354°
2026-04-27 09:08 28.69430 124.00031 33018 ft 499 kts 354°
2026-04-27 09:09 28.76369 124.00034 33008 ft 499 kts 354°
2026-04-27 09:09 28.83315 124.00035 32997 ft 499 kts 354°
2026-04-27 09:10 28.90257 124.00035 33002 ft 499 kts 354°
2026-04-27 09:10 28.97156 124.00035 32997 ft 498 kts 354°
2026-04-27 09:11 29.04089 124.00035 32993 ft 498 kts 354°
2026-04-27 09:11 29.11028 124.00035 32997 ft 498 kts 354°
2026-04-27 09:12 29.17961 124.00036 32991 ft 498 kts 354°
2026-04-27 09:12 29.24852 124.00034 32993 ft 498 kts 354°
2026-04-27 09:13 29.31783 124.00034 32992 ft 498 kts 354°
2026-04-27 09:13 29.38715 124.00034 32992 ft 498 kts 354°
2026-04-27 09:14 29.45643 124.00034 32997 ft 497 kts 354°
2026-04-27 09:14 29.52558 124.00036 32996 ft 497 kts 354°
2026-04-27 09:15 29.59415 123.99614 32996 ft 489 kts 344°
2026-04-27 09:15 29.66030 123.98112 33009 ft 486 kts 342°
2026-04-27 09:16 29.72634 123.96417 32993 ft 486 kts 342°
2026-04-27 09:16 29.79233 123.94690 32999 ft 486 kts 342°
2026-04-27 09:17 29.85849 123.92972 32988 ft 487 kts 342°
2026-04-27 09:17 29.92472 123.91264 33007 ft 487 kts 342°
2026-04-27 09:18 29.99027 123.89573 32980 ft 484 kts 342°
2026-04-27 09:18 30.05603 123.87874 32990 ft 484 kts 342°
2026-04-27 09:19 30.12181 123.86170 32980 ft 484 kts 342°
2026-04-27 09:19 30.18758 123.84467 32986 ft 484 kts 342°
2026-04-27 09:20 30.25330 123.82761 32982 ft 484 kts 342°
2026-04-27 09:20 30.31897 123.81052 32985 ft 484 kts 342°
2026-04-27 09:21 30.38469 123.79342 32979 ft 484 kts 342°
2026-04-27 09:21 30.44997 123.77639 32988 ft 484 kts 342°
2026-04-27 09:22 30.51561 123.75927 32984 ft 483 kts 342°
2026-04-27 09:22 30.58122 123.74215 32981 ft 483 kts 342°
2026-04-27 09:23 30.64683 123.72498 32978 ft 483 kts 342°
2026-04-27 09:23 30.71251 123.70778 32979 ft 482 kts 341°
2026-04-27 09:24 30.77754 123.69074 32981 ft 482 kts 342°
2026-04-27 09:24 30.84302 123.67358 32978 ft 483 kts 341°
2026-04-27 09:25 30.90878 123.65625 32973 ft 484 kts 341°
2026-04-27 09:25 30.97451 123.63891 32975 ft 483 kts 341°
2026-04-27 09:26 31.03957 123.62177 32970 ft 483 kts 341°
2026-04-27 09:26 31.10508 123.60449 32971 ft 483 kts 341°
2026-04-27 09:27 31.17063 123.58715 32969 ft 483 kts 341°
2026-04-27 09:27 31.23621 123.56978 32970 ft 482 kts 340°
2026-04-27 09:28 31.30173 123.55240 32968 ft 482 kts 340°
2026-04-27 09:28 31.36728 123.53509 32968 ft 483 kts 341°
2026-04-27 09:29 31.43242 123.51806 32967 ft 483 kts 341°
2026-04-27 09:29 31.49845 123.50262 32965 ft 489 kts 346°
2026-04-27 09:30 31.56701 123.49789 32972 ft 494 kts 351°
2026-04-27 09:30 31.63597 123.49570 32966 ft 496 kts 351°
2026-04-27 09:31 31.70492 123.49393 32967 ft 496 kts 351°
2026-04-27 09:31 31.77393 123.49202 32968 ft 496 kts 351°
2026-04-27 09:32 31.84304 123.49108 32963 ft 497 kts 352°
2026-04-27 09:32 31.90062 123.49119 32965 ft 498 kts 353°
2026-04-27 09:33 31.98104 123.49127 32965 ft 496 kts 352°
2026-04-27 09:33 32.03883 123.49114 32964 ft 496 kts 352°
2026-04-27 09:34 32.11906 123.49085 32960 ft 496 kts 352°
2026-04-27 09:34 32.17685 123.49061 32963 ft 496 kts 352°
2026-04-27 09:35 32.24545 123.49037 32960 ft 496 kts 352°
2026-04-27 09:35 32.31451 123.49013 32957 ft 496 kts 352°
2026-04-27 09:36 32.38365 123.48989 32967 ft 496 kts 352°
2026-04-27 09:36 32.45267 123.48963 32955 ft 495 kts 352°
2026-04-27 09:37 32.52163 123.48938 32953 ft 495 kts 352°
2026-04-27 09:37 32.59051 123.48913 32952 ft 495 kts 352°
2026-04-27 09:38 32.65943 123.48890 32957 ft 495 kts 351°
2026-04-27 09:38 32.72826 123.48866 32955 ft 494 kts 351°
2026-04-27 09:39 32.79712 123.48841 32956 ft 494 kts 351°
2026-04-27 09:39 32.86594 123.48817 32954 ft 495 kts 351°
2026-04-27 09:40 32.93483 123.48792 32958 ft 495 kts 351°
2026-04-27 09:40 33.00369 123.48767 32958 ft 495 kts 351°
2026-04-27 09:41 33.07259 123.48741 32967 ft 495 kts 352°
2026-04-27 09:41 33.14116 123.48716 32954 ft 496 kts 352°
2026-04-27 09:42 33.21020 123.48692 32950 ft 496 kts 352°
2026-04-27 09:42 33.27921 123.48667 32975 ft 496 kts 351°
2026-04-27 09:43 33.34812 123.48644 32952 ft 494 kts 351°
2026-04-27 09:43 33.41703 123.48619 32952 ft 494 kts 351°
2026-04-27 09:44 33.48544 123.48592 32949 ft 494 kts 351°
2026-04-27 09:44 33.55414 123.48569 32946 ft 492 kts 349°
2026-04-27 09:45 33.62253 123.48546 32946 ft 491 kts 349°
2026-04-27 09:45 33.69097 123.48518 32946 ft 491 kts 349°
2026-04-27 09:46 33.75936 123.48495 32948 ft 489 kts 349°
2026-04-27 09:46 33.82733 123.48473 32947 ft 488 kts 349°
2026-04-27 09:47 33.89489 123.48447 32941 ft 488 kts 349°
2026-04-27 09:47 33.96290 123.48420 32943 ft 488 kts 349°
2026-04-27 09:48 34.03084 123.48394 32942 ft 488 kts 349°
2026-04-27 09:48 34.09885 123.48370 32944 ft 488 kts 349°
2026-04-27 09:49 34.16610 123.47972 32967 ft 481 kts 344°
2026-04-27 09:49 34.23228 123.47284 32938 ft 475 kts 343°
2026-04-27 09:50 34.29824 123.46625 32940 ft 475 kts 344°
2026-04-27 09:50 34.36397 123.46033 32939 ft 476 kts 345°
2026-04-27 09:51 34.42992 123.45469 32938 ft 474 kts 344°
2026-04-27 09:51 34.49574 123.44907 32937 ft 473 kts 344°
2026-04-27 09:52 34.56139 123.44340 32938 ft 473 kts 344°
2026-04-27 09:52 34.62697 123.43771 32942 ft 472 kts 344°
2026-04-27 09:53 34.69192 123.43210 32940 ft 470 kts 344°
2026-04-27 09:53 34.75718 123.42645 32938 ft 470 kts 344°
2026-04-27 09:54 34.82240 123.42078 32967 ft 470 kts 344°
2026-04-27 09:54 34.88760 123.41524 32933 ft 469 kts 344°
2026-04-27 09:55 34.95276 123.40970 32933 ft 469 kts 344°
2026-04-27 09:55 35.05075 123.40273 32961 ft 474 kts 346°
2026-04-27 09:56 35.11685 123.40145 32930 ft 476 kts 347°
2026-04-27 09:56 35.18314 123.40044 32930 ft 476 kts 347°
2026-04-27 09:57 35.24888 123.39890 32927 ft 475 kts 347°
2026-04-27 09:57 35.31517 123.39700 32925 ft 477 kts 346°
2026-04-27 09:58 35.38167 123.39507 32925 ft 478 kts 347°
2026-04-27 09:58 35.44823 123.39322 32922 ft 478 kts 347°
2026-04-27 09:59 35.51484 123.39139 32923 ft 478 kts 346°
2026-04-27 09:59 35.58143 123.38954 32919 ft 479 kts 346°
2026-04-27 10:00 35.64814 123.38767 32919 ft 479 kts 346°
2026-04-27 10:00 35.71472 123.38584 32925 ft 478 kts 346°
2026-04-27 10:01 35.78063 123.38405 32914 ft 476 kts 346°
2026-04-27 10:01 35.84689 123.38219 32911 ft 476 kts 346°
2026-04-27 10:02 35.91316 123.38031 32922 ft 476 kts 345°
2026-04-27 10:02 35.97939 123.37846 32903 ft 475 kts 345°
2026-04-27 10:03 36.04555 123.37658 32909 ft 475 kts 345°
2026-04-27 10:03 36.11166 123.37470 32905 ft 475 kts 345°
2026-04-27 10:04 36.17740 123.37284 32901 ft 475 kts 345°
2026-04-27 10:04 36.24349 123.37098 32897 ft 475 kts 345°
2026-04-27 10:05 36.30959 123.36912 32896 ft 475 kts 345°
2026-04-27 10:05 36.37566 123.36727 32897 ft 474 kts 345°
2026-04-27 10:06 36.44161 123.36544 32902 ft 473 kts 345°
2026-04-27 10:06 36.50745 123.36360 32899 ft 473 kts 345°
2026-04-27 10:07 36.57334 123.36174 32899 ft 473 kts 345°
2026-04-27 10:07 36.63920 123.35991 32900 ft 473 kts 345°
2026-04-27 10:08 36.70508 123.35806 32900 ft 473 kts 345°
2026-04-27 10:08 36.77056 123.35623 32900 ft 473 kts 345°
2026-04-27 10:09 36.83638 123.35441 32900 ft 474 kts 345°
2026-04-27 10:09 36.90234 123.35266 32900 ft 473 kts 345°
2026-04-27 10:10 36.96825 123.35077 32903 ft 472 kts 345°
2026-04-27 10:10 37.03379 123.34893 32897 ft 470 kts 345°
2026-04-27 10:11 37.09919 123.34705 32901 ft 470 kts 345°
2026-04-27 10:11 37.16416 123.34520 32909 ft 469 kts 345°
2026-04-27 10:12 37.22913 123.34338 32894 ft 466 kts 345°
2026-04-27 10:12 37.29388 123.34153 32895 ft 465 kts 345°
2026-04-27 10:13 37.35867 123.33966 32920 ft 465 kts 344°
2026-04-27 10:13 37.42328 123.33784 32896 ft 464 kts 344°
2026-04-27 10:14 37.48781 123.33600 32880 ft 463 kts 344°
2026-04-27 10:14 37.55307 123.33838 32933 ft 484 kts 353°
2026-04-27 10:15 37.58655 123.34768 32888 ft 503 kts
2026-04-27 10:15 37.61982 123.36327 32874 ft 514 kts
2026-04-27 10:15 37.68541 123.39970 32876 ft 521 kts 11°
2026-04-27 10:16 37.75123 123.43834 32880 ft 521 kts 11°
2026-04-27 10:16 37.81694 123.47673 32869 ft 519 kts 11°
2026-04-27 10:17 37.88265 123.51466 32864 ft 518 kts 11°
2026-04-27 10:17 37.94833 123.55243 32857 ft 518 kts 11°
2026-04-27 10:18 38.01394 123.59023 32863 ft 518 kts 11°
2026-04-27 10:18 38.07916 123.62792 32855 ft 518 kts 11°
2026-04-27 10:19 38.14519 123.66614 32854 ft 518 kts 11°
2026-04-27 10:19 38.21081 123.70423 32849 ft 519 kts 11°
2026-04-27 10:20 38.27614 123.74220 32848 ft 519 kts 12°
2026-04-27 10:20 38.34184 123.78047 32845 ft 519 kts 12°
2026-04-27 10:21 38.39653 123.81239 32879 ft 520 kts 12°
2026-04-27 10:21 38.46234 123.85089 32839 ft 520 kts 12°
2026-04-27 10:22 38.52809 123.88943 32837 ft 520 kts 13°
2026-04-27 10:22 38.59383 123.92800 32836 ft 520 kts 13°
2026-04-27 10:23 38.65970 123.96683 32828 ft 522 kts 14°
2026-04-27 10:23 38.69178 123.98998 32836 ft 537 kts 24°
2026-04-27 10:23 38.72147 124.02001 32850 ft 552 kts 35°
2026-04-27 10:24 38.77043 124.09680 32828 ft 566 kts 47°
2026-04-27 10:24 38.81537 124.18010 32829 ft 569 kts 49°
2026-04-27 10:25 38.85967 124.26425 32826 ft 567 kts 50°
2026-04-27 10:25 38.90427 124.34732 32833 ft 564 kts 49°
2026-04-27 10:26 38.94925 124.42981 32840 ft 563 kts 49°
2026-04-27 10:26 38.99382 124.51171 32822 ft 561 kts 49°
2026-04-27 10:27 39.03848 124.59413 32835 ft 562 kts 49°
2026-04-27 10:27 39.08303 124.67669 32852 ft 561 kts 50°
2026-04-27 10:28 39.12724 124.75895 32841 ft 558 kts 50°
2026-04-27 10:28 39.17145 124.84134 32845 ft 559 kts 50°
2026-04-27 10:29 39.21560 124.92379 32843 ft 557 kts 51°
2026-04-27 10:29 39.25948 125.00599 32832 ft 556 kts 51°
2026-04-27 10:30 39.30314 125.08796 32873 ft 557 kts 51°
2026-04-27 10:30 39.34697 125.17050 32855 ft 556 kts 51°
2026-04-27 10:31 39.39062 125.25293 32856 ft 555 kts 51°
2026-04-27 10:31 39.43423 125.33545 32859 ft 556 kts 51°
2026-04-27 10:32 39.47930 125.41634 32859 ft 550 kts 43°
2026-04-27 10:32 39.53497 125.48232 32883 ft 540 kts 33°
2026-04-27 10:33 39.59354 125.54299 32870 ft 538 kts 32°
2026-04-27 10:33 39.65246 125.60305 32877 ft 540 kts 34°
2026-04-27 10:34 39.70200 125.67662 32877 ft 553 kts 56°
2026-04-27 10:34 39.71892 125.72180 32870 ft 558 kts 68°
2026-04-27 10:34 39.72886 125.77053 32867 ft 561 kts 81°
2026-04-27 10:35 39.73279 125.87178 32875 ft 562 kts 90°
2026-04-27 10:35 39.73204 125.97342 32857 ft 563 kts 92°
2026-04-27 10:36 39.73097 126.07535 32879 ft 562 kts 92°
2026-04-27 10:36 39.73030 126.17635 32882 ft 562 kts 92°
2026-04-27 10:37 39.72980 126.27804 32892 ft 562 kts 92°
2026-04-27 10:37 39.72958 126.37959 32892 ft 562 kts 91°
2026-04-27 10:38 39.72969 126.48130 32916 ft 564 kts 91°
2026-04-27 10:38 39.72973 126.58321 32919 ft 563 kts 92°
2026-04-27 10:39 39.72963 126.68451 32937 ft 560 kts 92°
2026-04-27 10:39 39.72938 126.78567 32926 ft 560 kts 92°
2026-04-27 10:40 39.72902 126.88652 32953 ft 562 kts 92°
2026-04-27 10:40 39.72859 126.98824 32955 ft 563 kts 92°
2026-04-27 10:41 39.73811 127.08892 32981 ft 564 kts 72°
2026-04-27 10:41 39.75246 127.13602 32965 ft 559 kts 61°
2026-04-27 10:41 39.77067 127.18074 32976 ft 559 kts 59°
2026-04-27 10:42 39.80942 127.26860 32970 ft 559 kts 57°
2026-04-27 10:42 39.84858 127.35514 32972 ft 558 kts 57°
2026-04-27 10:43 39.88772 127.44233 32974 ft 557 kts 58°
2026-04-27 10:43 39.92658 127.52985 32975 ft 557 kts 58°
2026-04-27 10:44 39.96633 127.61643 32970 ft 556 kts 56°
2026-04-27 10:44 40.00690 127.70240 32973 ft 556 kts 56°
2026-04-27 10:45 40.04699 127.78790 32970 ft 556 kts 57°
2026-04-27 10:45 40.08713 127.87408 32969 ft 555 kts 57°
2026-04-27 10:46 40.12707 127.96059 32972 ft 555 kts 57°
2026-04-27 10:46 40.16690 128.04727 32995 ft 556 kts 57°
2026-04-27 10:47 40.20695 128.13423 32982 ft 560 kts 57°
2026-04-27 10:47 40.24709 128.22164 32973 ft 560 kts 57°
2026-04-27 10:48 40.28701 128.30927 32970 ft 559 kts 57°
2026-04-27 10:48 40.32646 128.39648 32964 ft 561 kts 58°
2026-04-27 10:49 40.36618 128.48454 32970 ft 559 kts 57°
2026-04-27 10:49 40.40596 128.57237 32971 ft 559 kts 57°
2026-04-27 10:50 40.44577 128.66013 32969 ft 559 kts 57°
2026-04-27 10:50 40.48540 128.74811 32959 ft 560 kts 57°
2026-04-27 10:51 40.52484 128.83575 32967 ft 562 kts 57°
2026-04-27 10:51 40.56463 128.92425 32959 ft 562 kts 57°
2026-04-27 10:52 40.60424 129.01283 32973 ft 561 kts 57°
2026-04-27 10:52 40.64370 129.10152 32966 ft 561 kts 57°
2026-04-27 10:53 40.71427 129.22184 32971 ft 548 kts 36°
2026-04-27 10:54 40.77313 129.28530 32966 ft 543 kts 33°
2026-04-27 10:54 40.83287 129.34626 32966 ft 542 kts 32°
2026-04-27 10:55 40.89215 129.40675 32967 ft 541 kts 33°
2026-04-27 10:55 40.95136 129.46776 32961 ft 539 kts 33°
2026-04-27 10:56 41.01041 129.52893 32965 ft 539 kts 33°
2026-04-27 10:56 41.06949 129.59027 32963 ft 540 kts 33°
2026-04-27 10:57 41.12861 129.65186 32965 ft 539 kts 33°
2026-04-27 10:57 41.18768 129.71355 32972 ft 539 kts 33°
2026-04-27 10:58 41.24614 129.77474 32969 ft 538 kts 33°
2026-04-27 10:58 41.30500 129.83649 32969 ft 538 kts 33°
2026-04-27 10:59 41.36371 129.89823 32973 ft 537 kts 33°
2026-04-27 10:59 41.42230 129.95998 32974 ft 537 kts 33°
2026-04-27 11:00 41.51026 130.05293 32979 ft 539 kts 33°
2026-04-27 11:00 41.56913 130.11530 32976 ft 540 kts 33°
2026-04-27 11:01 41.62792 130.17781 32975 ft 539 kts 33°
2026-04-27 11:01 41.68633 130.24006 32973 ft 539 kts 33°
2026-04-27 11:02 41.74500 130.30275 32973 ft 540 kts 33°
2026-04-27 11:02 41.80367 130.36565 32975 ft 539 kts 33°
2026-04-27 11:03 41.86229 130.42853 32976 ft 539 kts 33°
2026-04-27 11:03 41.92042 130.49104 32974 ft 539 kts 33°
2026-04-27 11:04 41.97875 130.55396 32980 ft 535 kts 33°
2026-04-27 11:04 42.03670 130.61664 32972 ft 534 kts 33°
2026-04-27 11:05 42.09456 130.67933 32973 ft 534 kts 33°
2026-04-27 11:05 42.15222 130.74197 32971 ft 531 kts 33°
2026-04-27 11:06 42.20932 130.80414 32982 ft 531 kts 33°
2026-04-27 11:06 42.26688 130.86656 32991 ft 530 kts 33°
2026-04-27 11:07 42.32444 130.92881 32976 ft 530 kts 33°
2026-04-27 11:07 42.38193 130.99118 32977 ft 530 kts 33°
2026-04-27 11:08 42.43930 131.05361 32982 ft 528 kts 33°
2026-04-27 11:08 42.49649 131.11602 32986 ft 528 kts 33°
2026-04-27 11:09 42.54399 131.16798 32986 ft 528 kts 33°
2026-04-27 11:09 42.60098 131.23067 32988 ft 525 kts 34°
2026-04-27 11:10 42.65752 131.29371 32988 ft 525 kts 34°
2026-04-27 11:10 42.72301 131.36702 33002 ft 524 kts 34°
2026-04-27 11:11 42.76961 131.41928 32992 ft 520 kts 34°
2026-04-27 11:11 42.82570 131.48227 32992 ft 519 kts 34°
2026-04-27 11:12 42.88137 131.54496 32995 ft 519 kts 34°
2026-04-27 11:12 42.93655 131.60729 32993 ft 518 kts 34°
2026-04-27 11:13 42.99209 131.67015 33003 ft 518 kts 34°
2026-04-27 11:13 43.04741 131.73294 32998 ft 516 kts 35°
2026-04-27 11:14 43.10269 131.79581 32998 ft 516 kts 35°
2026-04-27 11:14 43.15748 131.85826 33003 ft 516 kts 35°
2026-04-27 11:15 43.21290 131.92163 33009 ft 516 kts 35°
2026-04-27 11:15 43.26797 131.98484 33014 ft 516 kts 35°
2026-04-27 11:16 43.32261 132.04775 33020 ft 516 kts 35°
2026-04-27 11:16 43.37762 132.11120 33020 ft 518 kts 35°
2026-04-27 11:17 43.43240 132.17585 33020 ft 519 kts 37°
2026-04-27 11:17 43.48659 132.24184 33017 ft 520 kts 37°
2026-04-27 11:18 43.54089 132.30808 33015 ft 523 kts 37°
2026-04-27 11:18 43.59552 132.37458 33011 ft 524 kts 37°
2026-04-27 11:19 43.65024 132.44123 33009 ft 524 kts 37°
2026-04-27 11:19 43.70509 132.50818 33010 ft 528 kts 37°
2026-04-27 11:20 43.76018 132.57560 33019 ft 529 kts 37°
2026-04-27 11:20 43.81521 132.64316 33044 ft 528 kts 37°
2026-04-27 11:21 43.87030 132.71091 33018 ft 531 kts 37°
2026-04-27 11:21 43.92524 132.77868 33012 ft 531 kts 37°
2026-04-27 11:22 43.98041 132.84689 33026 ft 531 kts 37°
2026-04-27 11:22 44.03560 132.91533 33013 ft 532 kts 37°
2026-04-27 11:23 44.09086 132.98401 33011 ft 532 kts 37°
2026-04-27 11:23 44.14607 133.05281 33025 ft 532 kts 37°
2026-04-27 11:24 44.20177 133.12080 33016 ft 529 kts 32°
2026-04-27 11:24 44.26034 133.18276 33012 ft 528 kts 31°
2026-04-27 11:25 44.31944 133.24376 33013 ft 528 kts 31°
2026-04-27 11:25 44.37854 133.30463 32997 ft 528 kts 31°
2026-04-27 11:26 44.43760 133.36571 33003 ft 528 kts 31°
2026-04-27 11:26 44.49669 133.42706 33010 ft 529 kts 32°
2026-04-27 11:27 44.55577 133.48858 32999 ft 529 kts 32°
2026-04-27 11:27 44.61446 133.54989 32998 ft 529 kts 32°
2026-04-27 11:28 44.67352 133.61170 33010 ft 530 kts 32°
2026-04-27 11:28 44.73290 133.67399 32998 ft 533 kts 32°
2026-04-27 11:29 44.79234 133.73657 32995 ft 533 kts 32°
2026-04-27 11:29 44.85167 133.79920 32993 ft 533 kts 32°
2026-04-27 11:30 44.91100 133.86200 33000 ft 533 kts 32°
2026-04-27 11:30 44.97089 133.92360 33000 ft 532 kts 30°
2026-04-27 11:31 45.03163 133.98332 32997 ft 533 kts 30°
2026-04-27 11:31 45.09216 134.04305 32997 ft 534 kts 31°
2026-04-27 11:32 45.15276 134.10358 32991 ft 531 kts 31°
2026-04-27 11:32 45.21309 134.16416 32990 ft 532 kts 31°
2026-04-27 11:33 45.27355 134.22504 32992 ft 533 kts 31°
2026-04-27 11:33 45.33396 134.28605 32992 ft 533 kts 31°
2026-04-27 11:34 45.39440 134.34722 32991 ft 534 kts 32°
2026-04-27 11:34 45.45454 134.40826 32990 ft 535 kts 32°
2026-04-27 11:35 45.51506 134.46987 32986 ft 535 kts 32°
2026-04-27 11:35 45.57558 134.53165 32987 ft 536 kts 32°
2026-04-27 11:36 45.63628 134.59376 33023 ft 537 kts 32°
2026-04-27 11:36 45.69695 134.65602 32981 ft 535 kts 32°
2026-04-27 11:37 45.75732 134.71814 32984 ft 535 kts 32°
2026-04-27 11:37 45.81767 134.78041 32981 ft 535 kts 32°
2026-04-27 11:38 45.87960 134.83939 32977 ft 530 kts 23°
2026-04-27 11:38 45.94852 134.87141 32981 ft 516 kts
2026-04-27 11:39 46.01938 134.88360 32979 ft 515 kts
2026-04-27 11:39 46.09078 134.89260 32972 ft 514 kts
2026-04-27 11:40 46.16191 134.90146 32972 ft 512 kts
2026-04-27 11:40 46.23293 134.91071 32965 ft 513 kts
2026-04-27 11:41 46.30415 134.92021 32969 ft 514 kts
2026-04-27 11:41 46.37536 134.92980 32987 ft 514 kts
2026-04-27 11:42 46.44624 134.93937 32968 ft 510 kts
2026-04-27 11:42 46.51696 134.94891 32964 ft 510 kts
2026-04-27 11:43 46.58722 134.95840 32963 ft 510 kts
2026-04-27 11:43 46.65799 134.96800 32961 ft 510 kts
2026-04-27 11:44 46.72869 134.97762 32970 ft 508 kts
2026-04-27 11:44 46.79910 134.98722 32968 ft 508 kts
2026-04-27 11:45 46.85769 134.99506 32966 ft 508 kts
2026-04-27 11:45 46.94006 135.00517 32965 ft 508 kts
2026-04-27 11:46 47.01057 135.01376 32968 ft 508 kts
2026-04-27 11:46 47.08109 135.02250 32967 ft 508 kts
2026-04-27 11:47 47.15160 135.03133 32968 ft 508 kts
2026-04-27 11:47 47.22209 135.04019 32969 ft 508 kts
2026-04-27 11:48 47.29215 135.04899 32987 ft 509 kts
2026-04-27 11:48 47.36256 135.05789 32970 ft 506 kts
2026-04-27 11:49 47.43266 135.06677 32966 ft 505 kts
2026-04-27 11:49 47.50272 135.07565 32971 ft 505 kts
2026-04-27 11:50 47.57295 135.08456 32972 ft 506 kts
2026-04-27 11:50 47.64312 135.09350 32968 ft 505 kts
2026-04-27 11:51 47.71306 135.10245 32963 ft 504 kts
2026-04-27 11:52 47.81733 135.11580 32962 ft 504 kts
2026-04-27 11:52 47.88729 135.12488 32956 ft 505 kts
2026-04-27 11:53 47.95717 135.13400 32959 ft 502 kts
2026-04-27 11:53 48.02656 135.14311 32954 ft 500 kts
2026-04-27 11:54 48.09594 135.15203 32955 ft 500 kts
2026-04-27 11:54 48.16547 135.16101 32952 ft 501 kts
2026-04-27 11:55 48.23504 135.17008 32961 ft 502 kts
2026-04-27 11:55 48.30397 135.17910 32957 ft 498 kts
2026-04-27 11:56 48.37302 135.18816 32961 ft 498 kts
2026-04-27 11:56 48.43048 135.19468 32958 ft 498 kts 359°
2026-04-27 11:56 48.47659 135.18960 32960 ft 496 kts 348°
2026-04-27 11:57 48.49888 135.18205 32960 ft 495 kts 343°
2026-04-27 11:57 48.54145 135.15637 32969 ft 492 kts 331°
2026-04-27 11:57 48.57015 135.12849 32965 ft 490 kts 322°
2026-04-27 11:58 48.60985 135.06805 32966 ft 488 kts 306°
2026-04-27 11:58 48.64132 134.97767 32968 ft 488 kts 288°
2026-04-27 11:59 48.65226 134.87674 32967 ft 488 kts 270°
2026-04-27 11:59 48.64155 134.77564 32973 ft 490 kts 252°
2026-04-27 12:00 48.61086 134.68413 32975 ft 495 kts 240°
2026-04-27 12:00 48.58253 134.58972 32974 ft 493 kts 255°
2026-04-27 12:01 48.57440 134.48784 32979 ft 489 kts 275°
2026-04-27 12:01 48.58959 134.38842 32976 ft 486 kts 294°
2026-04-27 12:02 48.61192 134.29174 32981 ft 488 kts 288°
2026-04-27 12:02 48.63102 134.19319 32979 ft 489 kts 287°
2026-04-27 12:03 48.64911 134.09406 32986 ft 490 kts 287°
2026-04-27 12:03 48.66585 133.99406 32985 ft 491 kts 285°
2026-04-27 12:04 48.68165 133.89348 32980 ft 491 kts 285°
2026-04-27 12:04 48.69740 133.79367 32988 ft 490 kts 285°
2026-04-27 12:05 48.71338 133.69318 32975 ft 490 kts 286°
2026-04-27 12:05 48.72935 133.59269 32999 ft 491 kts 286°
2026-04-27 12:06 48.74529 133.49185 32995 ft 492 kts 286°
2026-04-27 12:06 48.76113 133.39099 32996 ft 492 kts 286°
2026-04-27 12:07 48.77677 133.29072 33002 ft 492 kts 286°
2026-04-27 12:07 48.79242 133.18961 33012 ft 492 kts 287°
2026-04-27 12:08 48.80794 133.08873 33010 ft 491 kts 287°
2026-04-27 12:08 48.82342 132.98760 33008 ft 491 kts 287°
2026-04-27 12:09 48.84399 132.88966 33012 ft 484 kts 297°
2026-04-27 12:09 48.87215 132.79705 33015 ft 483 kts 299°
2026-04-27 12:10 48.90125 132.70597 33017 ft 482 kts 300°
2026-04-27 12:10 48.93060 132.61424 33017 ft 483 kts 299°
2026-04-27 12:11 48.95977 132.52218 33026 ft 483 kts 299°
2026-04-27 12:11 48.98876 132.43005 33022 ft 483 kts 299°
2026-04-27 12:12 49.01765 132.33789 33028 ft 481 kts 299°
2026-04-27 12:12 49.04634 132.24589 33027 ft 481 kts 299°
2026-04-27 12:13 49.07491 132.15375 33028 ft 481 kts 299°
2026-04-27 12:13 49.10341 132.06156 33034 ft 481 kts 299°
2026-04-27 12:14 49.13184 131.96927 33037 ft 479 kts 299°
2026-04-27 12:14 49.16014 131.87706 33036 ft 478 kts 299°
2026-04-27 12:15 49.18837 131.78485 33037 ft 478 kts 298°
2026-04-27 12:15 49.21629 131.69321 33040 ft 479 kts 298°
2026-04-27 12:16 49.24438 131.60088 33036 ft 477 kts 298°
2026-04-27 12:16 49.27239 131.50884 33038 ft 476 kts 298°
2026-04-27 12:17 49.30036 131.41665 33038 ft 476 kts 298°
2026-04-27 12:17 49.32805 131.32497 33034 ft 476 kts 298°
2026-04-27 12:18 49.35579 131.23279 33034 ft 475 kts 298°
2026-04-27 12:18 49.38337 131.14074 33034 ft 474 kts 298°
2026-04-27 12:19 49.41088 131.04860 33031 ft 474 kts 298°
2026-04-27 12:19 49.43830 130.95640 33030 ft 474 kts 298°
2026-04-27 12:20 49.46565 130.86414 33018 ft 474 kts 297°
2026-04-27 12:20 49.49283 130.77211 33030 ft 471 kts 297°
2026-04-27 12:21 49.51987 130.68013 33033 ft 471 kts 297°
2026-04-27 12:21 49.54665 130.58875 33028 ft 471 kts 297°
2026-04-27 12:22 49.57352 130.49674 33014 ft 471 kts 297°
2026-04-27 12:22 49.60027 130.40474 33032 ft 470 kts 297°
2026-04-27 12:23 49.62691 130.31275 33031 ft 470 kts 297°
2026-04-27 12:23 49.65348 130.22067 33038 ft 470 kts 297°
2026-04-27 12:24 49.67999 130.12844 33036 ft 470 kts 297°
2026-04-27 12:24 49.70638 130.03628 33038 ft 468 kts 296°
2026-04-27 12:25 49.73246 129.94484 33037 ft 468 kts 296°
2026-04-27 12:25 49.75868 129.85263 33041 ft 467 kts 296°
2026-04-27 12:26 49.78472 129.76046 33043 ft 468 kts 296°
2026-04-27 12:26 49.81060 129.66792 33044 ft 467 kts 296°
2026-04-27 12:27 49.83626 129.57579 33042 ft 466 kts 296°
2026-04-27 12:27 49.86172 129.48408 33042 ft 466 kts 296°
2026-04-27 12:28 49.88727 129.39176 33043 ft 466 kts 295°
2026-04-27 12:28 49.91274 129.29942 33037 ft 466 kts 295°
2026-04-27 12:29 49.93818 129.20680 33040 ft 465 kts 295°
2026-04-27 12:29 49.96345 129.11441 33043 ft 465 kts 295°
2026-04-27 12:30 49.98868 129.02185 33046 ft 465 kts 295°
2026-04-27 12:30 50.01379 128.92935 33045 ft 465 kts 295°
2026-04-27 12:31 50.03886 128.83666 33046 ft 465 kts 295°
2026-04-27 12:31 50.06369 128.74442 33042 ft 465 kts 295°
2026-04-27 12:32 50.08857 128.65158 33041 ft 465 kts 295°
2026-04-27 12:32 50.11338 128.55863 33042 ft 463 kts 295°
2026-04-27 12:33 50.13804 128.46596 33039 ft 462 kts 294°
2026-04-27 12:33 50.16259 128.37331 33039 ft 462 kts 294°
2026-04-27 12:34 50.18853 128.28191 33040 ft 460 kts 301°
2026-04-27 12:34 50.22670 128.20261 33039 ft 457 kts 316°
2026-04-27 12:35 50.27828 128.14512 33036 ft 457 kts 333°
2026-04-27 12:35 50.33903 128.11480 33039 ft 461 kts 347°
2026-04-27 12:36 50.40196 128.09714 33038 ft 463 kts 349°
2026-04-27 12:36 50.46565 128.08099 33037 ft 463 kts 349°
2026-04-27 12:37 50.52935 128.06445 33036 ft 463 kts 349°
2026-04-27 12:37 50.59289 128.04749 33035 ft 463 kts 349°
2026-04-27 12:38 50.65651 128.03039 33036 ft 465 kts 349°
2026-04-27 12:38 50.72033 128.01361 33037 ft 465 kts 349°
2026-04-27 12:39 50.78424 127.99691 33038 ft 465 kts 349°
2026-04-27 12:39 50.84813 127.98013 33037 ft 465 kts 349°
2026-04-27 12:40 50.91203 127.96330 33033 ft 465 kts 350°
2026-04-27 12:40 50.97589 127.94632 33042 ft 465 kts 350°
2026-04-27 12:41 51.03945 127.92940 33043 ft 466 kts 350°
2026-04-27 12:41 51.10345 127.91233 33045 ft 466 kts 350°
2026-04-27 12:42 51.16746 127.89522 33044 ft 466 kts 350°
2026-04-27 12:42 51.23138 127.87809 33044 ft 466 kts 350°
2026-04-27 12:43 51.29521 127.86093 33051 ft 465 kts 350°
2026-04-27 12:43 51.35905 127.84372 33051 ft 465 kts 350°
2026-04-27 12:44 51.42252 127.82658 33049 ft 465 kts 350°
2026-04-27 12:44 51.48637 127.80926 33051 ft 465 kts 350°
2026-04-27 12:45 51.55021 127.79192 33044 ft 465 kts 350°
2026-04-27 12:45 51.61402 127.77452 33055 ft 464 kts 351°
2026-04-27 12:46 51.66696 127.76005 33056 ft 464 kts 351°
2026-04-27 12:46 51.73066 127.74261 33054 ft 465 kts 351°
2026-04-27 12:47 51.79449 127.72509 33056 ft 465 kts 351°
2026-04-27 12:47 51.85828 127.70751 33056 ft 464 kts 351°
2026-04-27 12:48 51.92196 127.68989 33074 ft 463 kts 351°
2026-04-27 12:48 51.98437 127.66659 33060 ft 464 kts 341°
2026-04-27 12:49 52.04146 127.61772 33067 ft 466 kts 327°
2026-04-27 12:49 52.09411 127.55604 33065 ft 467 kts 325°
2026-04-27 12:50 52.14591 127.49222 33050 ft 467 kts 325°
2026-04-27 12:50 52.19765 127.42829 33067 ft 466 kts 325°
2026-04-27 12:51 52.24940 127.36460 33066 ft 466 kts 325°
2026-04-27 12:51 52.30117 127.30092 33070 ft 466 kts 325°
2026-04-27 12:52 52.35291 127.23713 33066 ft 466 kts 325°
2026-04-27 12:52 52.40462 127.17314 33072 ft 465 kts 325°
2026-04-27 12:53 52.48199 127.07691 33072 ft 465 kts 325°
2026-04-27 12:53 52.53300 127.01255 33072 ft 465 kts 324°
2026-04-27 12:54 52.58430 126.94763 33075 ft 465 kts 324°
2026-04-27 12:54 52.63556 126.88268 33075 ft 465 kts 324°
2026-04-27 12:55 52.68695 126.81749 33075 ft 465 kts 324°
2026-04-27 12:55 52.73813 126.75230 33080 ft 465 kts 324°
2026-04-27 12:56 52.78936 126.68686 33078 ft 465 kts 324°
2026-04-27 12:56 52.84009 126.62185 33080 ft 464 kts 324°
2026-04-27 12:57 52.89113 126.55625 33084 ft 464 kts 324°
2026-04-27 12:57 52.94205 126.49058 33083 ft 464 kts 324°
2026-04-27 12:58 52.99293 126.42478 33089 ft 464 kts 324°
2026-04-27 12:58 53.04381 126.35878 33085 ft 464 kts 324°
2026-04-27 12:59 53.09455 126.29275 33085 ft 463 kts 324°
2026-04-27 12:59 53.14537 126.22642 33086 ft 463 kts 324°
2026-04-27 13:00 53.19609 126.16002 33098 ft 463 kts 324°
2026-04-27 13:00 53.24671 126.09354 33078 ft 463 kts 324°
2026-04-27 13:01 53.29736 126.02683 33097 ft 463 kts 324°
2026-04-27 13:01 53.34770 125.96031 33097 ft 463 kts 324°
2026-04-27 13:02 53.39824 125.89330 33101 ft 463 kts 324°
2026-04-27 13:02 53.44553 125.81956 33106 ft 468 kts 312°
2026-04-27 13:03 53.47916 125.72560 33107 ft 475 kts 295°
2026-04-27 13:03 53.49820 125.61870 33113 ft 479 kts 288°
2026-04-27 13:04 53.51390 125.50980 33114 ft 480 kts 287°
2026-04-27 13:04 53.52922 125.40059 33120 ft 480 kts 287°
2026-04-27 13:05 53.54473 125.29153 33125 ft 480 kts 287°
2026-04-27 13:05 53.56024 125.18302 33127 ft 480 kts 288°
2026-04-27 13:06 53.57579 125.07383 33130 ft 480 kts 288°
2026-04-27 13:06 53.59124 124.96456 33134 ft 480 kts 288°
2026-04-27 13:07 53.60657 124.85522 33147 ft 480 kts 287°
2026-04-27 13:07 53.62182 124.74568 33116 ft 480 kts 288°
2026-04-27 13:08 53.63693 124.63627 33151 ft 479 kts 288°
2026-04-27 13:08 53.65192 124.52694 33149 ft 479 kts 288°
2026-04-27 13:09 53.66673 124.41821 33145 ft 479 kts 288°
2026-04-27 13:09 53.68157 124.30856 33153 ft 480 kts 287°
2026-04-27 13:10 53.69628 124.19880 33145 ft 480 kts 288°
2026-04-27 13:10 53.71090 124.08890 33156 ft 479 kts 288°
2026-04-27 13:11 53.72542 123.97908 33162 ft 479 kts 288°
2026-04-27 13:11 53.73981 123.86921 33162 ft 479 kts 287°
2026-04-27 13:12 53.75413 123.75936 33162 ft 479 kts 287°
2026-04-27 13:12 53.76837 123.64909 33155 ft 479 kts 288°
2026-04-27 13:13 53.78249 123.53899 33176 ft 479 kts 288°
2026-04-27 13:13 53.79007 123.42634 33164 ft 488 kts 276°
2026-04-27 13:14 53.78947 123.31205 33167 ft 489 kts 274°
2026-04-27 13:14 53.78736 123.19692 33169 ft 490 kts 274°
2026-04-27 13:15 53.78507 123.08170 33138 ft 490 kts 274°
2026-04-27 13:15 53.78282 122.96616 33179 ft 492 kts 274°
2026-04-27 13:16 53.78058 122.85044 33176 ft 492 kts 274°
2026-04-27 13:16 53.77822 122.73466 33177 ft 493 kts 274°
2026-04-27 13:17 53.77578 122.61972 33178 ft 493 kts 274°
2026-04-27 13:17 53.77321 122.50385 33180 ft 493 kts 274°
2026-04-27 13:18 53.77052 122.38795 33177 ft 493 kts 274°
2026-04-27 13:18 53.76772 122.27219 33185 ft 493 kts 274°
2026-04-27 13:19 53.76482 122.15646 33187 ft 494 kts 274°
2026-04-27 13:19 53.76199 122.04047 33192 ft 494 kts 274°
2026-04-27 13:20 53.75933 121.92420 33191 ft 494 kts 274°
2026-04-27 13:20 53.75657 121.80886 33183 ft 494 kts 274°
2026-04-27 13:21 53.75364 121.69249 33203 ft 496 kts 274°
2026-04-27 13:21 53.75055 121.57586 33208 ft 496 kts 274°
2026-04-27 13:22 53.74733 121.45907 33206 ft 497 kts 274°
2026-04-27 13:22 53.74403 121.34325 33204 ft 497 kts 274°
2026-04-27 13:23 53.74060 121.22642 33210 ft 498 kts 273°
2026-04-27 13:23 53.73706 121.10944 33210 ft 500 kts 274°
2026-04-27 13:24 53.73338 120.99202 33220 ft 501 kts 273°
2026-04-27 13:24 53.72960 120.87456 33219 ft 501 kts 273°
2026-04-27 13:25 53.72569 120.75714 33223 ft 501 kts 273°
2026-04-27 13:25 53.72166 120.63950 33224 ft 501 kts 273°
2026-04-27 13:26 53.71750 120.52203 33228 ft 502 kts 273°
2026-04-27 13:26 53.71325 120.40421 33225 ft 503 kts 273°
2026-04-27 13:27 53.70885 120.28618 33233 ft 504 kts 273°
2026-04-27 13:27 53.70436 120.16868 33232 ft 505 kts 273°
2026-04-27 13:28 53.69971 120.05021 33223 ft 505 kts 272°
2026-04-27 13:28 53.69493 119.93174 33192 ft 505 kts 272°
2026-04-27 13:29 53.68023 119.81433 33223 ft 522 kts 254°
2026-04-27 13:29 53.66441 119.75889 33229 ft 530 kts 243°
2026-04-27 13:29 53.64256 119.70836 33235 ft 536 kts 232°
2026-04-27 13:30 53.61530 119.66523 33236 ft 541 kts 219°
2026-04-27 13:30 53.58385 119.63154 33228 ft 544 kts 207°
2026-04-27 13:30 53.54877 119.60798 33230 ft 544 kts 195°
2026-04-27 13:30 53.51196 119.59352 33226 ft 543 kts 194°
2026-04-27 13:31 53.43982 119.55504 33222 ft 544 kts 199°
2026-04-27 13:31 53.36823 119.51297 33221 ft 544 kts 199°
2026-04-27 13:32 53.29724 119.46963 33258 ft 543 kts 200°
2026-04-27 13:32 53.23835 119.43346 33230 ft 542 kts 200°
2026-04-27 13:33 53.15612 119.38318 33228 ft 541 kts 200°
2026-04-27 13:33 53.08535 119.34015 33230 ft 540 kts 200°
2026-04-27 13:34 53.02660 119.30456 33232 ft 540 kts 200°
2026-04-27 13:34 52.95601 119.26196 33237 ft 540 kts 200°
2026-04-27 13:35 52.88538 119.21948 33227 ft 539 kts 200°
2026-04-27 13:35 52.81465 119.17709 33232 ft 540 kts 200°
2026-04-27 13:36 52.74400 119.13489 33230 ft 540 kts 199°
2026-04-27 13:36 52.67383 119.09310 33239 ft 540 kts 199°
2026-04-27 13:37 52.60316 119.05118 33247 ft 539 kts 199°
2026-04-27 13:37 52.53253 119.00942 33242 ft 539 kts 199°
2026-04-27 13:38 52.46192 118.96782 33245 ft 539 kts 199°
2026-04-27 13:38 52.39131 118.92637 33252 ft 539 kts 199°
2026-04-27 13:39 52.32066 118.88503 33248 ft 538 kts 199°
2026-04-27 13:39 52.25012 118.84393 33270 ft 539 kts 199°
2026-04-27 13:40 52.17964 118.80296 33260 ft 536 kts 199°
2026-04-27 13:40 52.10942 118.76227 33269 ft 535 kts 199°
2026-04-27 13:41 52.03966 118.72201 33267 ft 535 kts 199°
2026-04-27 13:41 51.96939 118.68156 33271 ft 535 kts 199°
2026-04-27 13:42 51.89942 118.64066 33275 ft 534 kts 199°
2026-04-27 13:42 51.82953 118.59962 33272 ft 533 kts 199°
2026-04-27 13:43 51.75975 118.55891 33276 ft 533 kts 199°
2026-04-27 13:43 51.68996 118.51844 33282 ft 532 kts 199°
2026-04-27 13:44 51.62071 118.47843 33285 ft 531 kts 199°
2026-04-27 13:44 51.55105 118.43832 33284 ft 531 kts 199°
2026-04-27 13:45 51.48175 118.39692 33285 ft 532 kts 204°
2026-04-27 13:45 51.42038 118.33240 33288 ft 528 kts 225°
2026-04-27 13:46 51.37070 118.24603 33286 ft 527 kts 231°
2026-04-27 13:46 51.32347 118.15615 33290 ft 527 kts 232°
2026-04-27 13:47 51.27657 118.06676 33288 ft 526 kts 231°
2026-04-27 13:47 51.22922 117.97782 33290 ft 526 kts 231°
2026-04-27 13:48 51.18162 117.88924 33295 ft 526 kts 231°
2026-04-27 13:48 51.13390 117.80086 33299 ft 526 kts 231°
2026-04-27 13:49 51.08616 117.71272 33297 ft 524 kts 231°
2026-04-27 13:49 51.03859 117.62523 33296 ft 522 kts 231°
2026-04-27 13:50 50.99104 117.53797 33295 ft 522 kts 231°
2026-04-27 13:50 50.94369 117.45135 33293 ft 523 kts 230°
2026-04-27 13:51 50.89597 117.36446 33293 ft 520 kts 230°
2026-04-27 13:51 50.84829 117.27798 33305 ft 523 kts 230°
2026-04-27 13:52 50.80029 117.19112 33302 ft 525 kts 230°
2026-04-27 13:52 50.75214 117.10425 33307 ft 525 kts 230°
2026-04-27 13:53 50.68010 116.97486 33301 ft 525 kts 230°
2026-04-27 13:54 50.63182 116.88853 33308 ft 525 kts 230°
2026-04-27 13:54 50.58341 116.80227 33303 ft 525 kts 230°
2026-04-27 13:55 50.53510 116.71647 33292 ft 523 kts 230°
2026-04-27 13:55 50.48716 116.63160 33306 ft 523 kts 230°
2026-04-27 13:56 50.43870 116.54612 33305 ft 523 kts 230°
2026-04-27 13:56 50.39011 116.46126 33297 ft 523 kts 227°
2026-04-27 13:57 50.33801 116.38211 33298 ft 522 kts 224°
2026-04-27 13:57 50.28500 116.30446 33302 ft 522 kts 224°
2026-04-27 13:58 50.23178 116.22718 33308 ft 522 kts 224°
2026-04-27 13:58 50.17866 116.15015 33303 ft 520 kts 224°
2026-04-27 13:59 50.12559 116.07330 33298 ft 520 kts 224°
2026-04-27 13:59 50.07290 115.99720 33294 ft 520 kts 224°
2026-04-27 14:00 50.01974 115.92070 33295 ft 523 kts 224°
2026-04-27 14:00 49.96607 115.84372 33303 ft 524 kts 223°
2026-04-27 14:01 49.91075 115.77008 33304 ft 525 kts 214°
2026-04-27 14:01 49.84579 115.71958 33310 ft 523 kts 200°
2026-04-27 14:02 49.77756 115.68151 33302 ft 519 kts 198°
2026-04-27 14:02 49.70909 115.64564 33308 ft 518 kts 198°
2026-04-27 14:03 49.64105 115.60976 33305 ft 516 kts 199°
2026-04-27 14:03 49.57367 115.57383 33304 ft 514 kts 199°
2026-04-27 14:04 49.50604 115.53770 33308 ft 514 kts 199°
2026-04-27 14:04 49.43831 115.50164 33304 ft 514 kts 199°
2026-04-27 14:05 49.37063 115.46575 33305 ft 514 kts 199°
2026-04-27 14:05 49.30335 115.43016 33322 ft 514 kts 199°
2026-04-27 14:06 49.23562 115.39444 33319 ft 514 kts 199°
2026-04-27 14:06 49.16796 115.35883 33316 ft 514 kts 199°
2026-04-27 14:07 49.10020 115.32329 33324 ft 514 kts 199°
2026-04-27 14:07 49.03252 115.28791 33318 ft 514 kts 199°
2026-04-27 14:08 48.96479 115.25259 33319 ft 514 kts 198°
2026-04-27 14:08 48.89703 115.21737 33316 ft 515 kts 198°
2026-04-27 14:09 48.82963 115.18243 33315 ft 515 kts 198°
2026-04-27 14:09 48.76178 115.14735 33319 ft 515 kts 198°
2026-04-27 14:10 48.69384 115.11233 33323 ft 515 kts 198°
2026-04-27 14:10 48.62589 115.07740 33315 ft 515 kts 198°
2026-04-27 14:11 48.55797 115.04258 33318 ft 514 kts 198°
2026-04-27 14:11 48.49048 115.00807 33313 ft 515 kts 198°
2026-04-27 14:12 48.42253 114.97341 33309 ft 516 kts 198°
2026-04-27 14:12 48.35447 114.93881 33307 ft 516 kts 198°
2026-04-27 14:13 48.28632 114.90430 33311 ft 517 kts 198°
2026-04-27 14:13 48.21810 114.86983 33312 ft 517 kts 198°
2026-04-27 14:14 48.14982 114.83547 33312 ft 517 kts 198°
2026-04-27 14:14 48.08193 114.80134 33308 ft 519 kts 197°
2026-04-27 14:15 48.01341 114.76702 33311 ft 519 kts 197°
2026-04-27 14:15 47.94492 114.73283 33308 ft 519 kts 197°
2026-04-27 14:16 47.87632 114.69868 33312 ft 520 kts 197°
2026-04-27 14:16 47.80757 114.66454 33311 ft 521 kts 197°
2026-04-27 14:17 47.73872 114.63043 33312 ft 521 kts 197°
2026-04-27 14:17 47.67031 114.59665 33312 ft 522 kts 197°
2026-04-27 14:18 47.60131 114.56264 33315 ft 522 kts 197°
2026-04-27 14:18 47.53228 114.52874 33316 ft 522 kts 197°
2026-04-27 14:19 47.46325 114.49488 33318 ft 522 kts 197°
2026-04-27 14:19 47.39430 114.46123 33320 ft 522 kts 197°
2026-04-27 14:20 47.32538 114.42768 33324 ft 522 kts 197°
2026-04-27 14:20 47.25638 114.39419 33319 ft 521 kts 197°
2026-04-27 14:21 47.18784 114.36098 33322 ft 521 kts 197°
2026-04-27 14:21 47.11887 114.32765 33327 ft 521 kts 197°
2026-04-27 14:22 47.04995 114.29446 33329 ft 522 kts 197°
2026-04-27 14:22 46.98094 114.26130 33330 ft 522 kts 197°
2026-04-27 14:23 46.92354 114.23379 33333 ft 522 kts 197°
2026-04-27 14:23 46.85450 114.20079 33328 ft 522 kts 197°
2026-04-27 14:24 46.78548 114.16790 33335 ft 522 kts 197°
2026-04-27 14:24 46.71642 114.13505 33337 ft 522 kts 197°
2026-04-27 14:25 46.63615 114.09700 33341 ft 522 kts 197°
2026-04-27 14:25 46.56700 114.06428 33344 ft 522 kts 197°
2026-04-27 14:26 46.50966 114.03719 33343 ft 522 kts 197°
2026-04-27 14:26 46.44040 114.00461 33345 ft 521 kts 197°
2026-04-27 14:27 46.37160 113.97233 33347 ft 519 kts 197°
2026-04-27 14:27 46.30284 113.94013 33346 ft 518 kts 197°
2026-04-27 14:28 46.23420 113.90807 33352 ft 518 kts 197°
2026-04-27 14:28 46.16555 113.87609 33354 ft 518 kts 197°
2026-04-27 14:29 46.09726 113.84436 33353 ft 518 kts 198°
2026-04-27 14:29 46.02865 113.81257 33352 ft 518 kts 198°
2026-04-27 14:30 45.95985 113.78077 33357 ft 518 kts 198°
2026-04-27 14:30 45.89125 113.74915 33359 ft 518 kts 198°
2026-04-27 14:31 45.82300 113.71777 33360 ft 518 kts 198°
2026-04-27 14:31 45.75437 113.68630 33360 ft 518 kts 198°
2026-04-27 14:32 45.68572 113.65490 33360 ft 518 kts 198°
2026-04-27 14:32 45.61703 113.62356 33360 ft 518 kts 198°
2026-04-27 14:33 45.54833 113.59229 33363 ft 518 kts 198°
2026-04-27 14:33 45.47960 113.56108 33361 ft 518 kts 199°
2026-04-27 14:34 45.41088 113.52997 33365 ft 519 kts 198°
2026-04-27 14:34 45.34182 113.49880 33366 ft 519 kts 198°
2026-04-27 14:35 45.27345 113.46802 33365 ft 518 kts 199°
2026-04-27 14:35 45.20469 113.43713 33364 ft 518 kts 199°
2026-04-27 14:36 45.13590 113.40630 33352 ft 518 kts 199°
2026-04-27 14:36 45.06706 113.37552 33359 ft 518 kts 199°
2026-04-27 14:37 44.99816 113.34479 33364 ft 518 kts 199°
2026-04-27 14:37 44.92932 113.31418 33357 ft 518 kts 199°
2026-04-27 14:38 44.86176 113.28070 33361 ft 515 kts 208°
2026-04-27 14:38 44.80326 113.22462 33359 ft 507 kts 227°
2026-04-27 14:38 44.78016 113.18730 33360 ft 502 kts 238°
2026-04-27 14:39 44.76225 113.14530 33357 ft 498 kts 248°
2026-04-27 14:39 44.73867 113.05497 33358 ft 495 kts 256°
2026-04-27 14:40 44.71841 112.96246 33362 ft 495 kts 256°
2026-04-27 14:40 44.69816 112.86986 33360 ft 495 kts 256°
2026-04-27 14:41 44.67742 112.77748 33366 ft 495 kts 256°
2026-04-27 14:41 44.65644 112.68538 33359 ft 494 kts 256°
2026-04-27 14:42 44.63539 112.59365 33370 ft 493 kts 256°
2026-04-27 14:42 44.61432 112.50206 33362 ft 493 kts 256°
2026-04-27 14:43 44.59319 112.41054 33362 ft 493 kts 255°
2026-04-27 14:43 44.57198 112.31896 33362 ft 496 kts 256°
2026-04-27 14:44 44.55068 112.22749 33354 ft 496 kts 256°
2026-04-27 14:44 44.52927 112.13600 33366 ft 493 kts 256°
2026-04-27 14:45 44.50786 112.04482 33365 ft 492 kts 256°
2026-04-27 14:45 44.48640 111.95373 33366 ft 492 kts 256°
2026-04-27 14:46 44.46486 111.86270 33361 ft 494 kts 256°
2026-04-27 14:46 44.44316 111.77132 33360 ft 495 kts 256°
2026-04-27 14:47 44.42139 111.68020 33371 ft 493 kts 256°
2026-04-27 14:47 44.39963 111.58938 33377 ft 492 kts 256°
2026-04-27 14:48 44.37781 111.49865 33374 ft 492 kts 256°
2026-04-27 14:48 44.34490 111.36250 33375 ft 493 kts 256°
2026-04-27 14:49 44.32282 111.27168 33375 ft 492 kts 256°
2026-04-27 14:49 44.30092 111.18193 33375 ft 491 kts 256°
2026-04-27 14:50 44.27881 111.09170 33377 ft 491 kts 256°
2026-04-27 14:50 44.25665 111.00156 33380 ft 491 kts 256°
2026-04-27 14:51 44.23443 110.91147 33344 ft 491 kts 256°
2026-04-27 14:51 44.21586 110.83652 33378 ft 491 kts 256°
2026-04-27 14:52 44.18976 110.73173 33377 ft 489 kts 256°
2026-04-27 14:52 44.16737 110.64209 33373 ft 489 kts 256°
2026-04-27 14:53 44.14495 110.55264 33374 ft 489 kts 256°
2026-04-27 14:53 44.12258 110.46378 33371 ft 489 kts 256°
2026-04-27 14:54 44.09998 110.37437 33372 ft 489 kts 256°
2026-04-27 14:54 44.07738 110.28533 33371 ft 487 kts 256°
2026-04-27 14:55 44.05475 110.19650 33376 ft 487 kts 256°
2026-04-27 14:55 44.03206 110.10773 33377 ft 487 kts 256°
2026-04-27 14:56 44.00930 110.01901 33382 ft 487 kts 256°
2026-04-27 14:56 43.98649 109.93044 33354 ft 486 kts 256°
2026-04-27 14:57 43.96379 109.84269 33394 ft 485 kts 256°
2026-04-27 14:57 43.94091 109.75452 33393 ft 485 kts 256°
2026-04-27 14:58 43.91794 109.66630 33382 ft 486 kts 255°
2026-04-27 14:58 43.89490 109.57817 33392 ft 486 kts 255°
2026-04-27 14:59 43.87195 109.49073 33372 ft 485 kts 255°
2026-04-27 14:59 43.84885 109.40304 33380 ft 485 kts 255°
2026-04-27 15:00 43.82565 109.31523 33383 ft 485 kts 255°
2026-04-27 15:00 43.80238 109.22751 33388 ft 485 kts 255°
2026-04-27 15:01 43.77918 109.14041 33384 ft 485 kts 255°
2026-04-27 15:01 43.75563 109.05229 33371 ft 484 kts 255°
2026-04-27 15:02 43.73229 108.96531 33378 ft 482 kts 255°
2026-04-27 15:02 43.70910 108.87906 33384 ft 482 kts 255°
2026-04-27 15:03 43.68567 108.79233 33384 ft 482 kts 255°
2026-04-27 15:03 43.66212 108.70551 33386 ft 482 kts 255°
2026-04-27 15:04 43.63854 108.61887 33380 ft 482 kts 255°
2026-04-27 15:04 43.61491 108.53227 33381 ft 482 kts 255°
2026-04-27 15:05 43.59116 108.44561 33377 ft 483 kts 255°
2026-04-27 15:05 43.56729 108.35886 33378 ft 484 kts 255°
2026-04-27 15:06 43.54334 108.27209 33378 ft 484 kts 255°
2026-04-27 15:06 43.51949 108.18601 33372 ft 483 kts 255°
2026-04-27 15:07 43.49555 108.09999 33373 ft 480 kts 255°
2026-04-27 15:07 43.47164 108.01426 33374 ft 479 kts 255°
2026-04-27 15:08 43.44768 107.92858 33376 ft 480 kts 255°
2026-04-27 15:08 43.42363 107.84291 33376 ft 480 kts 255°
2026-04-27 15:09 43.39952 107.75740 33372 ft 479 kts 255°
2026-04-27 15:09 43.37551 107.67261 33372 ft 474 kts 255°
2026-04-27 15:10 43.35158 107.58829 33382 ft 473 kts 255°
2026-04-27 15:10 43.32765 107.50415 33379 ft 473 kts 255°
2026-04-27 15:11 43.30362 107.41997 33375 ft 473 kts 255°
2026-04-27 15:11 43.28359 107.35006 33376 ft 474 kts 255°
2026-04-27 15:12 43.25946 107.26617 33376 ft 470 kts 255°
2026-04-27 15:12 43.23546 107.18300 33381 ft 468 kts 255°
2026-04-27 15:13 43.21144 107.09991 33379 ft 468 kts 255°
2026-04-27 15:13 43.18754 107.01752 33369 ft 469 kts 255°
2026-04-27 15:14 43.16332 106.93431 33379 ft 470 kts 255°
2026-04-27 15:14 43.14278 106.85032 33379 ft 456 kts 265°
2026-04-27 15:15 43.13722 106.76550 33374 ft 444 kts 274°
2026-04-27 15:15 43.13689 106.68112 33353 ft 443 kts 275°
2026-04-27 15:16 43.13728 106.59667 33373 ft 443 kts 275°
2026-04-27 15:16 43.13744 106.51222 33374 ft 444 kts 275°
2026-04-27 15:17 43.13734 106.42829 33370 ft 444 kts 275°
2026-04-27 15:17 43.13711 106.34371 33334 ft 444 kts 275°
2026-04-27 15:18 43.13683 106.25879 33374 ft 446 kts 275°
2026-04-27 15:18 43.13649 106.17375 33368 ft 447 kts 275°
2026-04-27 15:19 43.13609 106.08923 33371 ft 447 kts 275°
2026-04-27 15:19 43.13561 106.00418 33371 ft 447 kts 275°
2026-04-27 15:20 43.13509 105.91894 33369 ft 449 kts 274°
2026-04-27 15:20 43.13450 105.83347 33366 ft 449 kts 274°
2026-04-27 15:21 43.13384 105.74792 33366 ft 449 kts 274°
2026-04-27 15:21 43.13310 105.66255 33364 ft 447 kts 274°
2026-04-27 15:22 43.13231 105.57745 33347 ft 447 kts 274°
2026-04-27 15:22 43.13147 105.49219 33351 ft 448 kts 274°
2026-04-27 15:23 43.13058 105.40679 33347 ft 449 kts 274°
2026-04-27 15:23 43.12961 105.32132 33337 ft 449 kts 274°
2026-04-27 15:24 43.12857 105.23639 33330 ft 450 kts 274°
2026-04-27 15:24 43.12746 105.15047 33319 ft 452 kts 274°
2026-04-27 15:25 43.12629 105.06442 33312 ft 452 kts 273°
2026-04-27 15:25 43.12505 104.97845 33311 ft 452 kts 273°
2026-04-27 15:26 43.12375 104.89240 33296 ft 453 kts 273°
2026-04-27 15:26 43.12239 104.80569 33300 ft 456 kts 273°
2026-04-27 15:27 43.12093 104.71874 33304 ft 457 kts 273°
2026-04-27 15:27 43.11939 104.63176 33295 ft 457 kts 273°
2026-04-27 15:28 43.11782 104.54537 33293 ft 457 kts 273°
2026-04-27 15:28 43.11620 104.45836 33288 ft 457 kts 272°
2026-04-27 15:29 43.11449 104.37145 33286 ft 457 kts 272°
2026-04-27 15:29 43.11271 104.28461 33288 ft 456 kts 272°
2026-04-27 15:30 43.11086 104.19784 33267 ft 456 kts 272°
2026-04-27 15:30 43.10896 104.11080 33289 ft 458 kts 272°
2026-04-27 15:31 43.10698 104.02365 33281 ft 458 kts 272°
2026-04-27 15:31 43.10493 103.93709 33279 ft 458 kts 272°
2026-04-27 15:32 43.10281 103.84978 33248 ft 458 kts 271°
2026-04-27 15:32 43.10065 103.76231 33261 ft 461 kts 271°
2026-04-27 15:33 43.09839 103.67452 33262 ft 462 kts 271°
2026-04-27 15:33 43.09604 103.58669 33252 ft 462 kts 271°
2026-04-27 15:34 43.09363 103.49883 33251 ft 462 kts 271°
2026-04-27 15:34 43.09117 103.41074 33242 ft 464 kts 270°
2026-04-27 15:35 43.08865 103.32289 33238 ft 465 kts 270°
2026-04-27 15:35 43.08591 103.23444 33238 ft 465 kts 270°
2026-04-27 15:36 43.08326 103.14599 33232 ft 465 kts 270°
2026-04-27 15:36 43.08060 103.05733 33222 ft 466 kts 270°
2026-04-27 15:37 43.07778 102.96902 33227 ft 464 kts 270°
2026-04-27 15:37 43.07489 102.88135 33228 ft 463 kts 270°
2026-04-27 15:38 43.07195 102.79318 33229 ft 464 kts 270°
2026-04-27 15:38 43.06895 102.70480 33228 ft 466 kts 269°
2026-04-27 15:39 43.06584 102.61608 33230 ft 467 kts 269°
2026-04-27 15:39 43.06266 102.52782 33230 ft 468 kts 269°
2026-04-27 15:40 43.05919 102.43899 33233 ft 468 kts 269°
2026-04-27 15:40 43.05538 102.35001 33233 ft 470 kts 268°
2026-04-27 15:41 43.05209 102.26060 33232 ft 471 kts 270°
2026-04-27 15:41 43.04916 102.17106 33227 ft 471 kts 270°
2026-04-27 15:42 43.04585 102.08153 33228 ft 471 kts 269°
2026-04-27 15:42 43.04227 101.99195 33225 ft 473 kts 269°
2026-04-27 15:43 43.03855 101.90199 33221 ft 474 kts 269°
2026-04-27 15:43 43.03478 101.81250 33216 ft 474 kts 269°
2026-04-27 15:44 43.03093 101.72245 33209 ft 474 kts 269°
2026-04-27 15:44 43.02700 101.63214 33208 ft 477 kts 268°
2026-04-27 15:45 43.02295 101.54143 33200 ft 479 kts 268°
2026-04-27 15:45 43.01886 101.45115 33195 ft 479 kts 268°
2026-04-27 15:46 43.02196 101.36068 33195 ft 476 kts 282°
2026-04-27 15:46 43.04412 101.27594 33187 ft 475 kts 300°
2026-04-27 15:47 43.08007 101.19968 33189 ft 478 kts 305°
2026-04-27 15:47 43.11810 101.12531 33188 ft 475 kts 306°
2026-04-27 15:48 43.15567 101.05171 33196 ft 474 kts 306°
2026-04-27 15:49 43.21182 100.94008 33192 ft 474 kts 305°
2026-04-27 15:49 43.24913 100.86547 33192 ft 474 kts 305°
2026-04-27 15:50 43.28643 100.79070 33192 ft 474 kts 305°
2026-04-27 15:50 43.32362 100.71596 33192 ft 474 kts 305°
2026-04-27 15:51 43.36074 100.64113 33189 ft 474 kts 304°
2026-04-27 15:51 43.39760 100.56589 33182 ft 474 kts 304°
2026-04-27 15:52 43.43442 100.49117 33184 ft 475 kts 305°
2026-04-27 15:52 43.47159 100.41602 33175 ft 475 kts 305°
2026-04-27 15:53 43.50872 100.34068 33175 ft 475 kts 305°
2026-04-27 15:53 43.54577 100.26521 33162 ft 475 kts 305°
2026-04-27 15:54 43.58272 100.18969 33160 ft 475 kts 305°
2026-04-27 15:54 43.61954 100.11416 33154 ft 477 kts 305°
2026-04-27 15:55 43.65658 100.03803 33151 ft 478 kts 305°
2026-04-27 15:55 43.69358 99.96180 33148 ft 478 kts 305°
2026-04-27 15:56 43.73056 99.88544 33148 ft 478 kts 305°
2026-04-27 15:56 43.76745 99.80903 33143 ft 478 kts 304°
2026-04-27 15:57 43.80422 99.73238 33145 ft 478 kts 304°
2026-04-27 15:57 43.84103 99.65555 33149 ft 480 kts 304°
2026-04-27 15:58 43.87805 99.57902 33154 ft 480 kts 310°
2026-04-27 15:58 43.91751 99.50409 33155 ft 482 kts 310°
2026-04-27 15:59 43.95616 99.42796 33159 ft 483 kts 308°
2026-04-27 15:59 43.99347 99.35054 33152 ft 482 kts 308°
2026-04-27 16:00 44.03020 99.27278 33165 ft 481 kts 307°
2026-04-27 16:00 44.06684 99.19477 33156 ft 483 kts 307°
2026-04-27 16:01 44.10360 99.11635 33160 ft 484 kts 307°
2026-04-27 16:01 44.13420 99.05096 33156 ft 484 kts 307°
2026-04-27 16:02 44.17685 98.95964 33155 ft 484 kts 307°
2026-04-27 16:02 44.21325 98.88059 33161 ft 484 kts 303°
2026-04-27 16:03 44.24237 98.81325 33161 ft 484 kts 303°
2026-04-27 16:03 44.27754 98.73391 33156 ft 483 kts 304°
2026-04-27 16:04 44.31381 98.65481 33162 ft 484 kts 305°
2026-04-27 16:04 44.35046 98.57581 33158 ft 484 kts 305°
2026-04-27 16:05 44.38707 98.49674 33160 ft 484 kts 305°
2026-04-27 16:05 44.42346 98.41744 33162 ft 484 kts 304°
2026-04-27 16:06 44.45992 98.33816 33148 ft 484 kts 306°
2026-04-27 16:06 44.49693 98.25929 33161 ft 485 kts 306°
2026-04-27 16:07 44.53373 98.17983 33159 ft 486 kts 306°
2026-04-27 16:07 44.56960 98.10011 33160 ft 486 kts 304°
2026-04-27 16:08 44.60536 98.01965 33156 ft 486 kts 304°
2026-04-27 16:08 44.64139 97.93926 33155 ft 486 kts 303°
2026-04-27 16:09 44.67695 97.85862 33160 ft 486 kts 303°
2026-04-27 16:09 44.73103 97.73812 33155 ft 485 kts 304°
2026-04-27 16:10 44.80328 97.57756 33153 ft 485 kts 304°
2026-04-27 16:11 44.85717 97.45768 33160 ft 484 kts 304°
2026-04-27 16:12 44.91079 97.33702 33159 ft 484 kts 304°
2026-04-27 16:13 44.96435 97.21593 33162 ft 484 kts 304°
2026-04-27 16:13 45.01778 97.09468 33162 ft 484 kts 304°
2026-04-27 16:14 45.08816 96.93294 33154 ft 484 kts 303°
2026-04-27 16:15 45.15837 96.77026 33141 ft 483 kts 303°
2026-04-27 16:16 45.22874 96.60785 33141 ft 484 kts 303°
2026-04-27 16:17 45.29867 96.44517 33134 ft 483 kts 303°
2026-04-27 16:18 45.36853 96.28194 33154 ft 483 kts 303°
2026-04-27 16:19 45.40334 96.20010 33127 ft 483 kts 303°
2026-04-27 16:20 45.47276 96.03632 33139 ft 482 kts 303°
2026-04-27 16:21 45.52461 95.91340 33151 ft 482 kts 303°
2026-04-27 16:22 45.59351 95.74915 33151 ft 481 kts 304°
2026-04-27 16:22 45.64466 95.62657 33138 ft 481 kts 303°
2026-04-27 16:23 45.69589 95.50329 33140 ft 481 kts 303°
2026-04-27 16:24 45.72991 95.42110 33124 ft 480 kts 304°
2026-04-27 16:25 45.79772 95.25661 33124 ft 479 kts 304°
2026-04-27 16:26 45.86503 95.09239 33107 ft 479 kts 304°
2026-04-27 16:27 45.93221 94.92746 33107 ft 478 kts 304°
2026-04-27 16:28 46.01584 94.72083 33107 ft 477 kts 304°
2026-04-27 16:29 46.09854 94.51484 33118 ft 475 kts 304°
2026-04-27 16:30 46.16423 94.35010 33134 ft 475 kts 304°
2026-04-27 16:31 46.24588 94.14398 33133 ft 472 kts 303°
2026-04-27 16:32 46.29467 94.02005 33125 ft 472 kts 303°
2026-04-27 16:33 46.34306 93.89666 33143 ft 471 kts 303°
2026-04-27 16:33 46.37530 93.81407 33144 ft 471 kts 303°
2026-04-27 16:34 46.40755 93.73139 33144 ft 471 kts 302°
2026-04-27 16:34 46.43969 93.64865 33148 ft 471 kts 302°
2026-04-27 16:35 46.47175 93.56574 33148 ft 471 kts 302°
2026-04-27 16:36 46.51973 93.44129 33144 ft 471 kts 302°
2026-04-27 16:36 46.55172 93.35808 33148 ft 472 kts 302°
2026-04-27 16:37 46.58365 93.27473 33141 ft 472 kts 302°
2026-04-27 16:37 46.61529 93.19188 33129 ft 472 kts 302°
2026-04-27 16:38 46.64708 93.10836 33128 ft 471 kts 302°
2026-04-27 16:38 46.67876 93.02485 33132 ft 471 kts 302°
2026-04-27 16:39 46.71043 92.94113 33120 ft 471 kts 301°
2026-04-27 16:39 46.74199 92.85744 33129 ft 471 kts 301°
2026-04-27 16:40 46.77349 92.77362 33122 ft 471 kts 301°
2026-04-27 16:40 46.80493 92.68967 33132 ft 471 kts 301°
2026-04-27 16:41 46.83627 92.60577 33150 ft 471 kts 301°
2026-04-27 16:41 46.86821 92.52301 33132 ft 470 kts 306°
2026-04-27 16:42 46.91145 92.45153 33127 ft 466 kts 321°
2026-04-27 16:42 46.96569 92.40078 33132 ft 467 kts 331°
2026-04-27 16:43 47.02328 92.35607 33126 ft 469 kts 333°
2026-04-27 16:43 47.08124 92.31212 33127 ft 469 kts 333°
2026-04-27 16:44 47.13909 92.26778 33122 ft 469 kts 332°
2026-04-27 16:44 47.19677 92.22309 33122 ft 469 kts 332°
2026-04-27 16:45 47.25449 92.17816 33107 ft 469 kts 332°
2026-04-27 16:45 47.31213 92.13317 33102 ft 469 kts 332°
2026-04-27 16:46 47.36978 92.08807 33097 ft 469 kts 332°
2026-04-27 16:46 47.42721 92.04306 33088 ft 470 kts 332°
2026-04-27 16:47 47.48503 91.99763 33096 ft 471 kts 332°
2026-04-27 16:47 47.54282 91.95212 33080 ft 471 kts 332°
2026-04-27 16:48 47.60061 91.90649 33082 ft 471 kts 331°
2026-04-27 16:48 47.65846 91.86068 33069 ft 471 kts 331°
2026-04-27 16:49 47.74526 91.79168 33076 ft 472 kts 331°
2026-04-27 16:49 47.80313 91.74554 33071 ft 472 kts 331°
2026-04-27 16:50 47.86095 91.69933 33068 ft 472 kts 331°
2026-04-27 16:50 47.91813 91.65138 33072 ft 472 kts 325°
2026-04-27 16:51 47.96756 91.58762 33065 ft 470 kts 315°
2026-04-27 16:51 48.00550 91.52949 33070 ft 470 kts 313°
2026-04-27 16:52 48.05033 91.45849 33072 ft 470 kts 313°
2026-04-27 16:52 48.10235 91.37571 33072 ft 470 kts 313°
2026-04-27 16:53 48.13992 91.31609 33088 ft 470 kts 313°
2026-04-27 16:53 48.18478 91.24489 33089 ft 470 kts 313°
2026-04-27 16:54 48.22963 91.17356 33109 ft 470 kts 313°
2026-04-27 16:54 48.27451 91.10198 33112 ft 470 kts 313°
2026-04-27 16:55 48.31930 91.03031 33109 ft 470 kts 313°
2026-04-27 16:55 48.36379 90.95893 33121 ft 470 kts 312°
2026-04-27 16:56 48.40848 90.88703 33125 ft 470 kts 312°
2026-04-27 16:56 48.45321 90.81487 33148 ft 471 kts 312°
2026-04-27 16:57 48.49795 90.74252 33129 ft 472 kts 312°
2026-04-27 16:57 48.54270 90.67002 33139 ft 472 kts 312°
2026-04-27 16:58 48.58735 90.59729 33124 ft 472 kts 311°
2026-04-27 16:58 48.63198 90.52434 33131 ft 472 kts 311°
2026-04-27 16:59 48.67657 90.45135 33122 ft 473 kts 311°
2026-04-27 16:59 48.72092 90.37857 33118 ft 473 kts 311°
2026-04-27 17:00 48.78769 90.26857 33110 ft 472 kts 311°
2026-04-27 17:01 48.83214 90.19508 33099 ft 472 kts 311°
2026-04-27 17:01 48.87653 90.12150 33117 ft 472 kts 311°
2026-04-27 17:02 48.92085 90.04785 33094 ft 472 kts 311°
2026-04-27 17:02 48.96522 89.97402 33103 ft 473 kts 311°
2026-04-27 17:03 49.01630 89.91060 33102 ft 477 kts 327°
2026-04-27 17:03 49.07464 89.86285 33100 ft 480 kts 331°
2026-04-27 17:04 49.13462 89.81752 33097 ft 480 kts 332°
2026-04-27 17:04 49.19461 89.77251 33096 ft 480 kts 332°
2026-04-27 17:05 49.25458 89.72704 33099 ft 480 kts 331°
2026-04-27 17:05 49.31437 89.68131 33095 ft 480 kts 331°
2026-04-27 17:06 49.37420 89.63536 33102 ft 480 kts 331°
2026-04-27 17:06 49.43367 89.58960 33105 ft 480 kts 331°
2026-04-27 17:07 49.49337 89.54351 33109 ft 480 kts 331°
2026-04-27 17:07 49.55306 89.49731 33110 ft 480 kts 331°
2026-04-27 17:08 49.61093 89.44679 33111 ft 476 kts 321°
2026-04-27 17:08 49.65769 89.37573 33110 ft 470 kts 304°
2026-04-27 17:09 49.69479 89.29276 33114 ft 469 kts 302°
2026-04-27 17:09 49.73007 89.20806 33109 ft 468 kts 301°
2026-04-27 17:10 49.76515 89.12319 33112 ft 468 kts 301°
2026-04-27 17:10 49.80036 89.03840 33099 ft 468 kts 301°
2026-04-27 17:11 49.83546 88.95399 33092 ft 469 kts 301°
2026-04-27 17:11 49.88835 88.82640 33092 ft 469 kts 301°
2026-04-27 17:12 49.94114 88.69846 33087 ft 469 kts 301°
2026-04-27 17:13 49.97619 88.61301 33086 ft 467 kts 299°
2026-04-27 17:13 50.00706 88.52503 33085 ft 461 kts 295°
2026-04-27 17:14 50.03575 88.43589 33083 ft 461 kts 295°
2026-04-27 17:14 50.06468 88.34754 33082 ft 461 kts 295°
2026-04-27 17:15 50.09426 88.25893 33079 ft 461 kts 295°
2026-04-27 17:15 50.12397 88.17034 33107 ft 461 kts 295°
2026-04-27 17:16 50.15346 88.08187 33084 ft 459 kts 295°
2026-04-27 17:16 50.18279 87.99354 33088 ft 458 kts 294°
2026-04-27 17:17 50.21214 87.90505 33088 ft 458 kts 294°
2026-04-27 17:17 50.24120 87.81709 33079 ft 458 kts 294°
2026-04-27 17:18 50.28484 87.68436 33100 ft 458 kts 294°
2026-04-27 17:18 50.30789 87.59221 33086 ft 452 kts 281°
2026-04-27 17:19 50.31452 87.49524 33091 ft 447 kts 268°
2026-04-27 17:19 50.31205 87.39879 33093 ft 446 kts 266°
2026-04-27 17:20 50.30809 87.30180 33089 ft 446 kts 265°
2026-04-27 17:20 50.30409 87.20489 33091 ft 446 kts 265°
2026-04-27 17:21 50.30023 87.10809 33082 ft 445 kts 265°
2026-04-27 17:21 50.29642 87.01129 33083 ft 446 kts 265°
2026-04-27 17:22 50.29255 86.91449 33087 ft 446 kts 265°
2026-04-27 17:22 50.28861 86.81778 33086 ft 446 kts 265°
2026-04-27 17:23 50.28445 86.72167 33088 ft 445 kts 265°
2026-04-27 17:23 50.28019 86.62502 33090 ft 445 kts 265°
2026-04-27 17:24 50.27589 86.52849 33086 ft 445 kts 265°
2026-04-27 17:24 50.27155 86.43206 33088 ft 445 kts 265°
2026-04-27 17:25 50.26707 86.33567 33085 ft 445 kts 265°
2026-04-27 17:25 50.26255 86.23937 33093 ft 443 kts 264°
2026-04-27 17:26 50.25793 86.14334 33089 ft 443 kts 264°
2026-04-27 17:26 50.25325 86.04736 33097 ft 443 kts 264°
2026-04-27 17:27 50.24852 85.95199 33094 ft 443 kts 264°
2026-04-27 17:27 50.24368 85.85608 33114 ft 443 kts 264°
2026-04-27 17:28 50.23877 85.76029 33096 ft 442 kts 264°
2026-04-27 17:29 50.23128 85.61685 33100 ft 441 kts 264°
2026-04-27 17:29 50.22620 85.52116 33100 ft 441 kts 264°
2026-04-27 17:30 50.22107 85.42568 33096 ft 441 kts 264°
2026-04-27 17:30 50.21317 85.28279 33104 ft 442 kts 264°
2026-04-27 17:31 50.20779 85.18734 33095 ft 441 kts 264°
2026-04-27 17:31 50.20235 85.09177 33097 ft 441 kts 264°
2026-04-27 17:32 50.19406 84.94880 33108 ft 441 kts 263°
2026-04-27 17:33 50.18842 84.85340 33103 ft 441 kts 263°
2026-04-27 17:33 50.17975 84.75885 33101 ft 440 kts 255°
2026-04-27 17:34 50.15667 84.67075 33105 ft 440 kts 240°
2026-04-27 17:34 50.11969 84.59528 33111 ft 442 kts 231°
2026-04-27 17:35 50.07867 84.52390 33113 ft 441 kts 230°
2026-04-27 17:35 50.03726 84.45337 33107 ft 441 kts 230°
2026-04-27 17:36 49.99601 84.38269 33110 ft 441 kts 231°
2026-04-27 17:36 49.95489 84.31188 33110 ft 441 kts 231°
2026-04-27 17:37 49.91376 84.24108 33114 ft 441 kts 231°
2026-04-27 17:37 49.87260 84.17044 33117 ft 441 kts 231°
2026-04-27 17:38 49.83138 84.09991 33127 ft 441 kts 230°
2026-04-27 17:38 49.79039 84.03000 33120 ft 441 kts 230°
2026-04-27 17:39 49.75574 83.97104 33129 ft 442 kts 230°
2026-04-27 17:39 49.71456 83.90111 33133 ft 442 kts 230°
2026-04-27 17:40 49.67317 83.83104 33140 ft 442 kts 230°
2026-04-27 17:40 49.63169 83.76102 33141 ft 442 kts 230°
2026-04-27 17:41 49.59020 83.69115 33153 ft 442 kts 230°
2026-04-27 17:41 49.54853 83.62121 33145 ft 444 kts 230°
2026-04-27 17:42 49.50672 83.55116 33151 ft 445 kts 230°
2026-04-27 17:42 49.46481 83.48116 33153 ft 445 kts 230°
2026-04-27 17:43 49.42288 83.41134 33144 ft 444 kts 230°
2026-04-27 17:43 49.38089 83.34165 33154 ft 444 kts 230°
2026-04-27 17:44 49.33889 83.27201 33148 ft 444 kts 230°
2026-04-27 17:44 49.29706 83.20282 33149 ft 445 kts 230°
2026-04-27 17:45 49.25480 83.13325 33152 ft 445 kts 230°
2026-04-27 17:45 49.21250 83.06382 33144 ft 446 kts 230°
2026-04-27 17:46 49.17019 82.99450 33149 ft 446 kts 230°
2026-04-27 17:46 49.12815 82.92567 33134 ft 446 kts 230°
2026-04-27 17:47 49.08579 82.85673 33138 ft 444 kts 230°
2026-04-27 17:47 49.04351 82.78794 33145 ft 444 kts 230°
2026-04-27 17:48 49.00116 82.71924 33142 ft 444 kts 230°
2026-04-27 17:48 48.95880 82.65067 33138 ft 444 kts 230°
2026-04-27 17:49 48.91664 82.58265 33155 ft 444 kts 230°
2026-04-27 17:49 48.87413 82.51432 33158 ft 444 kts 230°
2026-04-27 17:50 48.83180 82.44645 33146 ft 442 kts 230°
2026-04-27 17:50 48.76812 82.34458 33159 ft 443 kts 230°
2026-04-27 17:51 48.72565 82.27685 33175 ft 443 kts 230°
2026-04-27 17:51 48.68339 82.20965 33174 ft 443 kts 230°
2026-04-27 17:52 48.64086 82.14220 33184 ft 443 kts 230°
2026-04-27 17:52 48.59824 82.07478 33187 ft 443 kts 230°
2026-04-27 17:53 48.55558 82.00752 33195 ft 443 kts 230°
2026-04-27 17:53 48.51288 81.94037 33194 ft 443 kts 230°
2026-04-27 17:54 48.47020 81.87340 33195 ft 443 kts 230°
2026-04-27 17:54 48.42740 81.80641 33206 ft 443 kts 230°
2026-04-27 17:55 48.38459 81.73958 33205 ft 443 kts 229°
2026-04-27 17:55 48.34178 81.67291 33196 ft 443 kts 230°
2026-04-27 17:56 48.29892 81.60637 33211 ft 442 kts 230°
2026-04-27 17:56 48.25608 81.54003 33216 ft 442 kts 230°
2026-04-27 17:57 48.21351 81.47427 33217 ft 442 kts 230°
2026-04-27 17:57 48.17064 81.40818 33221 ft 442 kts 229°
2026-04-27 17:58 48.12770 81.34215 33213 ft 442 kts 229°
2026-04-27 17:58 48.08476 81.27634 33218 ft 441 kts 230°
2026-04-27 17:59 48.04192 81.21087 33213 ft 440 kts 230°
2026-04-27 17:59 47.99910 81.14550 33212 ft 440 kts 230°
2026-04-27 18:00 47.95616 81.08011 33214 ft 440 kts 230°
2026-04-27 18:00 47.91321 81.01493 33212 ft 440 kts 230°
2026-04-27 18:01 47.87027 80.94993 33211 ft 440 kts 230°
2026-04-27 18:01 47.82757 80.88544 33200 ft 440 kts 230°
2026-04-27 18:02 47.78458 80.82067 33198 ft 440 kts 230°
2026-04-27 18:02 47.74154 80.75604 33184 ft 440 kts 230°
2026-04-27 18:03 47.69853 80.69151 33184 ft 439 kts 230°
2026-04-27 18:03 47.65555 80.62719 33165 ft 439 kts 230°
2026-04-27 18:04 47.61251 80.56295 33140 ft 438 kts 230°
2026-04-27 18:04 47.56950 80.49892 33138 ft 438 kts 230°
2026-04-27 18:05 47.52654 80.43510 33140 ft 437 kts 230°
2026-04-27 18:05 47.48354 80.37139 33158 ft 437 kts 230°
2026-04-27 18:06 47.44055 80.30787 33131 ft 437 kts 230°
2026-04-27 18:06 47.39781 80.24486 33132 ft 437 kts 230°
2026-04-27 18:07 47.35476 80.18159 33122 ft 436 kts 230°
2026-04-27 18:07 47.31178 80.11849 33133 ft 436 kts 230°
2026-04-27 18:08 47.26877 80.05555 33116 ft 436 kts 230°
2026-04-27 18:08 47.22572 79.99272 33130 ft 435 kts 230°
2026-04-27 18:09 47.18274 79.93018 33123 ft 434 kts 230°
2026-04-27 18:09 47.13773 79.87035 33099 ft 440 kts 222°
2026-04-27 18:10 47.08423 79.82448 33119 ft 448 kts 214°
2026-04-27 18:10 47.02862 79.78427 33118 ft 449 kts 213°
2026-04-27 18:11 46.97231 79.74469 33121 ft 449 kts 213°
2026-04-27 18:11 46.91603 79.70492 33088 ft 448 kts 213°
2026-04-27 18:12 46.86005 79.66515 33124 ft 447 kts 213°
2026-04-27 18:12 46.80408 79.62536 33118 ft 447 kts 213°
2026-04-27 18:13 46.74803 79.58560 33118 ft 447 kts 213°
2026-04-27 18:13 46.69205 79.54600 33119 ft 447 kts 213°
2026-04-27 18:14 46.63602 79.50649 33113 ft 447 kts 213°
2026-04-27 18:14 46.58031 79.46730 33113 ft 447 kts 213°
2026-04-27 18:15 46.52423 79.42792 33115 ft 447 kts 213°
2026-04-27 18:15 46.46827 79.38873 33103 ft 446 kts 213°
2026-04-27 18:16 46.41220 79.34952 33108 ft 448 kts 213°
2026-04-27 18:16 46.35603 79.31036 33108 ft 448 kts 213°
2026-04-27 18:17 46.29983 79.27125 33107 ft 448 kts 213°
2026-04-27 18:17 46.24405 79.23128 33109 ft 447 kts 213°
2026-04-27 18:18 46.18877 79.19114 33105 ft 448 kts 213°
2026-04-27 18:18 46.13300 79.15091 33091 ft 447 kts 213°
2026-04-27 18:19 46.07728 79.11100 33095 ft 447 kts 213°
2026-04-27 18:19 46.02152 79.07118 33090 ft 447 kts 213°
2026-04-27 18:20 45.96594 79.03156 33095 ft 448 kts 213°
2026-04-27 18:20 45.91011 78.99186 33091 ft 448 kts 213°
2026-04-27 18:21 45.85415 78.95218 33089 ft 448 kts 213°
2026-04-27 18:21 45.79819 78.91258 33088 ft 449 kts 212°
2026-04-27 18:22 45.74212 78.87298 33085 ft 449 kts 212°
2026-04-27 18:22 45.68607 78.83347 33080 ft 449 kts 212°
2026-04-27 18:23 45.63037 78.79434 33078 ft 449 kts 212°
2026-04-27 18:23 45.57431 78.75489 33075 ft 450 kts 212°
2026-04-27 18:24 45.51802 78.71530 33075 ft 451 kts 212°
2026-04-27 18:24 45.46162 78.67574 33075 ft 451 kts 212°
2026-04-27 18:25 45.40531 78.63636 33075 ft 451 kts 212°
2026-04-27 18:25 45.34892 78.59699 33075 ft 452 kts 212°
2026-04-27 18:26 45.29276 78.55788 33075 ft 452 kts 212°
2026-04-27 18:26 45.23610 78.51855 33073 ft 453 kts 212°
2026-04-27 18:27 45.18910 78.48595 33047 ft 452 kts 211°
2026-04-27 18:27 45.13229 78.44682 33070 ft 455 kts 210°
2026-04-27 18:28 45.07140 78.41884 33079 ft 464 kts 199°
2026-04-27 18:28 45.00818 78.39959 33073 ft 465 kts 197°
2026-04-27 18:29 44.94470 78.38181 33072 ft 466 kts 197°
2026-04-27 18:29 44.88143 78.36408 33072 ft 467 kts 197°
2026-04-27 18:30 44.81773 78.34604 33077 ft 466 kts 197°
2026-04-27 18:30 44.75408 78.32792 33078 ft 467 kts 197°
2026-04-27 18:31 44.69027 78.30975 33078 ft 468 kts 197°
2026-04-27 18:31 44.62646 78.29168 33073 ft 468 kts 197°
2026-04-27 18:32 44.56257 78.27364 33073 ft 468 kts 197°
2026-04-27 18:32 44.49872 78.25543 33072 ft 468 kts 197°
2026-04-27 18:33 44.43490 78.23702 33072 ft 468 kts 197°
2026-04-27 18:33 44.37111 78.21867 33063 ft 468 kts 197°
2026-04-27 18:34 44.30707 78.20036 33065 ft 470 kts 197°
2026-04-27 18:34 44.24300 78.18212 33064 ft 470 kts 197°
2026-04-27 18:35 44.17890 78.16390 33063 ft 470 kts 197°
2026-04-27 18:35 44.11644 78.14092 33051 ft 464 kts 206°
2026-04-27 18:36 44.05658 78.10729 33030 ft 463 kts 207°
2026-04-27 18:36 43.99736 78.07193 33030 ft 463 kts 208°
2026-04-27 18:37 43.93812 78.03643 33026 ft 464 kts 208°
2026-04-27 18:37 43.87859 78.00107 33030 ft 465 kts 208°
2026-04-27 18:38 43.82137 77.96077 33022 ft 458 kts 218°
2026-04-27 18:38 43.77481 77.90203 33011 ft 450 kts 234°
2026-04-27 18:39 43.73855 77.83142 33023 ft 451 kts 239°
2026-04-27 18:39 43.70431 77.75935 33031 ft 451 kts 239°
2026-04-27 18:40 43.66982 77.68685 33037 ft 451 kts 239°
2026-04-27 18:40 43.63498 77.61463 33038 ft 451 kts 239°
2026-04-27 18:41 43.59998 77.54258 33033 ft 451 kts 238°
2026-04-27 18:41 43.56497 77.47077 33048 ft 451 kts 238°
2026-04-27 18:42 43.53611 77.41093 33052 ft 451 kts 239°
2026-04-27 18:42 43.49555 77.32663 33068 ft 451 kts 238°
2026-04-27 18:43 43.46091 77.25500 33070 ft 451 kts 238°
2026-04-27 18:43 43.42604 77.18314 33076 ft 451 kts 238°
2026-04-27 18:44 43.39040 77.11195 33071 ft 452 kts 234°
2026-04-27 18:44 43.34529 77.05120 33076 ft 457 kts 222°
2026-04-27 18:45 43.29455 76.99845 33075 ft 457 kts 220°
2026-04-27 18:45 43.26037 76.96443 33073 ft 458 kts 219°